Wetterdaten: Freitag, 11.10.2019
Datum Zeit Temp. Aussen Temp. o. S. Temp +5cm Feuchte Auss Luftdruck Regen Sonnenschein Regendauer Solar Windben Empfang
11.10.2019 00:00 13,3 C 12,8 C 12,2 C 86 % 1016,2 hPa 0,0 l/m 0 min 0 min 0 W/m 25,7 km/h (4 Bft) 100,00 %
11.10.2019 00:05 13,3 C 12,8 C 12,2 C 85 % 1016,2 hPa 0,0 l/m 0 min 0 min 0 W/m 19,3 km/h (3 Bft) 98,25 %
11.10.2019 00:10 13,3 C 12,8 C 12,2 C 85 % 1016,1 hPa 0,0 l/m 0 min 0 min 0 W/m 35,4 km/h (5 Bft) 100,00 %
11.10.2019 00:15 13,3 C 12,8 C 12,2 C 84 % 1016,1 hPa 0,0 l/m 0 min 0 min 0 W/m 19,3 km/h (3 Bft) 99,12 %
11.10.2019 00:20 13,4 C 12,8 C 12,2 C 84 % 1016,1 hPa 0,0 l/m 0 min 0 min 0 W/m 22,5 km/h (4 Bft) 100,00 %
11.10.2019 00:25 13,4 C 12,8 C 12,2 C 84 % 1015,8 hPa 0,0 l/m 0 min 0 min 0 W/m 22,5 km/h (4 Bft) 100,00 %
11.10.2019 00:30 13,4 C 12,8 C 12,2 C 84 % 1015,8 hPa 0,0 l/m 0 min 0 min 0 W/m 22,5 km/h (4 Bft) 100,00 %
11.10.2019 00:35 13,4 C 12,8 C 12,2 C 83 % 1016,0 hPa 0,0 l/m 0 min 0 min 0 W/m 22,5 km/h (4 Bft) 100,00 %
11.10.2019 00:40 13,4 C 12,8 C 12,2 C 83 % 1015,9 hPa 0,0 l/m 0 min 0 min 0 W/m 22,5 km/h (4 Bft) 100,00 %
11.10.2019 00:45 13,4 C 12,8 C 12,2 C 83 % 1015,8 hPa 0,0 l/m 0 min 0 min 0 W/m 22,5 km/h (4 Bft) 100,00 %
11.10.2019 00:50 13,5 C 12,8 C 12,2 C 83 % 1016,0 hPa 0,0 l/m 0 min 0 min 0 W/m 29,0 km/h (5 Bft) 100,00 %
11.10.2019 00:55 13,5 C 12,8 C 12,2 C 82 % 1016,2 hPa 0,0 l/m 0 min 0 min 0 W/m 29,0 km/h (5 Bft) 100,00 %
11.10.2019 01:00 13,6 C 12,8 C 12,2 C 82 % 1016,1 hPa 0,0 l/m 0 min 0 min 0 W/m 29,0 km/h (5 Bft) 100,00 %
11.10.2019 01:05 13,6 C 12,8 C 12,2 C 82 % 1016,1 hPa 0,0 l/m 0 min 0 min 0 W/m 25,7 km/h (4 Bft) 100,00 %
11.10.2019 01:10 13,6 C 12,8 C 12,2 C 82 % 1016,1 hPa 0,0 l/m 0 min 0 min 0 W/m 19,3 km/h (3 Bft) 100,00 %
11.10.2019 01:15 13,6 C 12,8 C 12,2 C 81 % 1016,0 hPa 0,0 l/m 0 min 0 min 0 W/m 25,7 km/h (4 Bft) 99,12 %
11.10.2019 01:20 13,6 C 12,8 C 12,2 C 81 % 1015,7 hPa 0,0 l/m 0 min 0 min 0 W/m 35,4 km/h (5 Bft) 100,00 %
11.10.2019 01:25 13,6 C 12,8 C 12,2 C 81 % 1015,9 hPa 0,0 l/m 0 min 0 min 0 W/m 22,5 km/h (4 Bft) 100,00 %
11.10.2019 01:30 13,6 C 12,8 C 12,2 C 81 % 1015,8 hPa 0,0 l/m 0 min 0 min 0 W/m 29,0 km/h (5 Bft) 99,12 %
11.10.2019 01:35 13,6 C 12,2 C 11,7 C 80 % 1015,8 hPa 0,0 l/m 0 min 0 min 0 W/m 19,3 km/h (3 Bft) 100,00 %
11.10.2019 01:40 13,5 C 12,2 C 11,7 C 81 % 1015,6 hPa 0,0 l/m 0 min 0 min 0 W/m 19,3 km/h (3 Bft) 99,12 %
11.10.2019 01:45 13,4 C 12,2 C 11,7 C 81 % 1015,6 hPa 0,0 l/m 0 min 0 min 0 W/m 19,3 km/h (3 Bft) 100,00 %
11.10.2019 01:50 13,3 C 12,2 C 11,7 C 81 % 1015,5 hPa 0,0 l/m 0 min 0 min 0 W/m 19,3 km/h (3 Bft) 98,25 %
11.10.2019 01:55 13,2 C 12,2 C 11,7 C 81 % 1015,5 hPa 0,0 l/m 0 min 0 min 0 W/m 22,5 km/h (4 Bft) 99,12 %
11.10.2019 02:00 13,2 C 12,2 C 11,7 C 81 % 1015,6 hPa 0,0 l/m 0 min 0 min 0 W/m 25,7 km/h (4 Bft) 99,12 %
11.10.2019 02:08 13,1 C 12,2 C 11,7 C 81 % 1015,5 hPa 0,0 l/m 0 min 0 min 0 W/m 12,9 km/h (3 Bft) 95,65 %
11.10.2019 02:10 13,1 C 11,7 C 11,7 C 81 % 1015,5 hPa 0,0 l/m 0 min 0 min 0 W/m 12,9 km/h (3 Bft) 97,73 %
11.10.2019 02:12 13,0 C 11,7 C 11,7 C 81 % 1015,5 hPa 0,0 l/m 0 min 0 min 0 W/m 16,1 km/h (3 Bft) 97,83 %
11.10.2019 02:14 13,0 C 11,7 C 11,7 C 82 % 1015,4 hPa 0,0 l/m 0 min 0 min 0 W/m 16,1 km/h (3 Bft) 96,00 %
11.10.2019 02:16 12,9 C 11,7 C 11,7 C 82 % 1015,5 hPa 0,0 l/m 0 min 0 min 0 W/m 16,1 km/h (3 Bft) 95,74 %
11.10.2019 02:18 12,9 C 11,7 C 11,7 C 82 % 1015,6 hPa 0,0 l/m 0 min 0 min 0 W/m 16,1 km/h (3 Bft) 97,87 %
11.10.2019 02:20 12,9 C 11,7 C 11,7 C 82 % 1015,6 hPa 0,0 l/m 0 min 0 min 0 W/m 16,1 km/h (3 Bft) 97,87 %
11.10.2019 02:22 12,9 C 11,7 C 11,7 C 82 % 1015,6 hPa 0,0 l/m 0 min 0 min 0 W/m 16,1 km/h (3 Bft) 97,73 %
11.10.2019 02:24 12,8 C 11,7 C 11,7 C 82 % 1015,5 hPa 0,0 l/m 0 min 0 min 0 W/m 16,1 km/h (3 Bft) 97,96 %
11.10.2019 02:26 12,8 C 11,7 C 11,7 C 82 % 1015,6 hPa 0,0 l/m 0 min 0 min 0 W/m 16,1 km/h (3 Bft) 97,87 %
11.10.2019 02:28 12,8 C 11,7 C 11,7 C 82 % 1015,7 hPa 0,0 l/m 0 min 0 min 0 W/m 12,9 km/h (3 Bft) 97,87 %
11.10.2019 02:30 12,8 C 11,7 C 11,7 C 82 % 1015,7 hPa 0,0 l/m 0 min 0 min 0 W/m 16,1 km/h (3 Bft) 97,73 %
11.10.2019 02:32 12,8 C 11,7 C 11,7 C 82 % 1015,7 hPa 0,0 l/m 0 min 0 min 0 W/m 16,1 km/h (3 Bft) 96,00 %
11.10.2019 02:34 12,8 C 11,7 C 11,7 C 82 % 1015,7 hPa 0,0 l/m 0 min 0 min 0 W/m 19,3 km/h (3 Bft) 95,74 %
11.10.2019 02:36 12,8 C 11,7 C 11,1 C 82 % 1015,8 hPa 0,0 l/m 0 min 0 min 0 W/m 6,4 km/h (2 Bft) 95,74 %
11.10.2019 02:38 12,7 C 11,7 C 11,1 C 82 % 1015,9 hPa 0,0 l/m 0 min 0 min 0 W/m 19,3 km/h (3 Bft) 93,02 %
11.10.2019 02:40 12,7 C 11,7 C 11,1 C 82 % 1016,0 hPa 0,0 l/m 0 min 0 min 0 W/m 16,1 km/h (3 Bft) 92,00 %
11.10.2019 02:42 12,7 C 11,7 C 11,1 C 82 % 1016,1 hPa 0,0 l/m 0 min 0 min 0 W/m 16,1 km/h (3 Bft) 93,62 %
11.10.2019 02:44 12,7 C 11,7 C 11,1 C 82 % 1016,0 hPa 0,0 l/m 0 min 0 min 0 W/m 12,9 km/h (3 Bft) 93,62 %
11.10.2019 02:46 12,7 C 11,7 C 11,1 C 82 % 1016,0 hPa 0,0 l/m 0 min 0 min 0 W/m 16,1 km/h (3 Bft) 93,62 %
11.10.2019 02:48 12,7 C 11,7 C 11,1 C 82 % 1015,9 hPa 0,0 l/m 0 min 0 min 0 W/m 16,1 km/h (3 Bft) 97,67 %
11.10.2019 02:50 12,6 C 11,7 C 11,1 C 83 % 1015,9 hPa 0,0 l/m 0 min 0 min 0 W/m 19,3 km/h (3 Bft) 95,74 %
11.10.2019 02:52 12,6 C 11,7 C 11,1 C 83 % 1015,8 hPa 0,0 l/m 0 min 0 min 0 W/m 19,3 km/h (3 Bft) 94,00 %
11.10.2019 02:54 12,6 C 11,7 C 11,1 C 83 % 1015,7 hPa 0,0 l/m 0 min 0 min 0 W/m 22,5 km/h (4 Bft) 95,74 %
11.10.2019 02:56 12,6 C 11,7 C 11,1 C 83 % 1015,6 hPa 0,0 l/m 0 min 0 min 0 W/m 12,9 km/h (3 Bft) 95,74 %
11.10.2019 02:58 12,6 C 11,7 C 11,7 C 82 % 1015,6 hPa 0,0 l/m 0 min 0 min 0 W/m 29,0 km/h (5 Bft) 95,74 %
11.10.2019 03:00 12,6 C 11,7 C 11,7 C 82 % 1015,6 hPa 0,0 l/m 0 min 0 min 0 W/m 22,5 km/h (4 Bft) 97,67 %
11.10.2019 03:02 12,6 C 11,7 C 11,7 C 82 % 1015,6 hPa 0,0 l/m 0 min 0 min 0 W/m 19,3 km/h (3 Bft) 96,00 %
11.10.2019 03:04 12,6 C 11,7 C 11,1 C 82 % 1015,5 hPa 0,0 l/m 0 min 0 min 0 W/m 16,1 km/h (3 Bft) 97,87 %
11.10.2019 03:06 12,6 C 11,7 C 11,7 C 82 % 1015,4 hPa 0,0 l/m 0 min 0 min 0 W/m 32,2 km/h (5 Bft) 97,87 %
11.10.2019 03:08 12,6 C 11,7 C 11,7 C 82 % 1015,4 hPa 0,0 l/m 0 min 0 min 0 W/m 25,7 km/h (4 Bft) 97,73 %
11.10.2019 03:10 12,6 C 11,7 C 11,7 C 82 % 1015,3 hPa 0,0 l/m 0 min 0 min 0 W/m 19,3 km/h (3 Bft) 93,88 %
11.10.2019 03:12 12,6 C 11,7 C 11,7 C 82 % 1015,5 hPa 0,0 l/m 0 min 0 min 0 W/m 22,5 km/h (4 Bft) 97,87 %
11.10.2019 03:14 12,6 C 11,7 C 11,7 C 82 % 1015,4 hPa 0,0 l/m 0 min 0 min 0 W/m 19,3 km/h (3 Bft) 97,87 %
11.10.2019 03:16 12,6 C 11,7 C 11,1 C 82 % 1015,3 hPa 0,0 l/m 0 min 0 min 0 W/m 16,1 km/h (3 Bft) 97,73 %
11.10.2019 03:18 12,6 C 11,7 C 11,1 C 82 % 1015,2 hPa 0,0 l/m 0 min 0 min 0 W/m 22,5 km/h (4 Bft) 95,74 %
11.10.2019 03:20 12,6 C 11,7 C 11,1 C 82 % 1015,1 hPa 0,0 l/m 0 min 0 min 0 W/m 19,3 km/h (3 Bft) 100,00 %
11.10.2019 03:22 12,6 C 11,7 C 11,1 C 82 % 1015,2 hPa 0,0 l/m 0 min 0 min 0 W/m 19,3 km/h (3 Bft) 100,00 %
11.10.2019 03:24 12,6 C 11,7 C 11,1 C 83 % 1015,2 hPa 0,0 l/m 0 min 0 min 0 W/m 19,3 km/h (3 Bft) 100,00 %
11.10.2019 03:26 12,6 C 11,7 C 11,1 C 83 % 1015,2 hPa 0,0 l/m 0 min 0 min 0 W/m 19,3 km/h (3 Bft) 100,00 %
11.10.2019 03:28 12,6 C 11,7 C 11,1 C 83 % 1015,2 hPa 0,0 l/m 0 min 0 min 0 W/m 25,7 km/h (4 Bft) 100,00 %
11.10.2019 03:30 12,6 C 11,7 C 11,1 C 83 % 1015,3 hPa 0,0 l/m 0 min 0 min 0 W/m 19,3 km/h (3 Bft) 100,00 %
11.10.2019 03:32 12,6 C 11,7 C 11,1 C 83 % 1015,2 hPa 0,0 l/m 0 min 0 min 0 W/m 16,1 km/h (3 Bft) 100,00 %
11.10.2019 03:34 12,6 C 11,7 C 11,1 C 83 % 1015,2 hPa 0,0 l/m 0 min 0 min 0 W/m 12,9 km/h (3 Bft) 100,00 %
11.10.2019 03:36 12,6 C 11,7 C 11,7 C 83 % 1015,2 hPa 0,0 l/m 0 min 0 min 0 W/m 25,7 km/h (4 Bft) 97,96 %
11.10.2019 03:38 12,6 C 11,7 C 11,7 C 83 % 1015,2 hPa 0,0 l/m 0 min 0 min 0 W/m 22,5 km/h (4 Bft) 100,00 %
11.10.2019 03:40 12,6 C 11,7 C 11,1 C 83 % 1015,2 hPa 0,0 l/m 0 min 0 min 0 W/m 22,5 km/h (4 Bft) 100,00 %
11.10.2019 03:42 12,6 C 11,7 C 11,1 C 83 % 1015,2 hPa 0,0 l/m 0 min 0 min 0 W/m 16,1 km/h (3 Bft) 100,00 %
11.10.2019 03:44 12,6 C 11,7 C 11,1 C 83 % 1015,3 hPa 0,0 l/m 0 min 0 min 0 W/m 19,3 km/h (3 Bft) 100,00 %
11.10.2019 03:46 12,6 C 11,7 C 11,1 C 83 % 1015,2 hPa 0,0 l/m 0 min 0 min 0 W/m 16,1 km/h (3 Bft) 100,00 %
11.10.2019 03:48 12,6 C 11,7 C 11,1 C 83 % 1015,3 hPa 0,0 l/m 0 min 0 min 0 W/m 22,5 km/h (4 Bft) 100,00 %
11.10.2019 03:50 12,6 C 12,2 C 11,7 C 83 % 1015,2 hPa 0,0 l/m 0 min 0 min 0 W/m 32,2 km/h (5 Bft) 100,00 %
11.10.2019 03:52 12,6 C 12,2 C 11,7 C 82 % 1015,3 hPa 0,0 l/m 0 min 0 min 0 W/m 25,7 km/h (4 Bft) 97,87 %
11.10.2019 03:54 12,6 C 12,2 C 11,7 C 82 % 1015,3 hPa 0,0 l/m 0 min 0 min 0 W/m 29,0 km/h (5 Bft) 100,00 %
11.10.2019 03:56 12,6 C 12,2 C 11,7 C 82 % 1015,2 hPa 0,0 l/m 0 min 0 min 0 W/m 19,3 km/h (3 Bft) 100,00 %
11.10.2019 03:58 12,6 C 12,2 C 11,7 C 82 % 1015,2 hPa 0,0 l/m 0 min 0 min 0 W/m 22,5 km/h (4 Bft) 100,00 %
11.10.2019 04:00 12,6 C 12,2 C 11,7 C 83 % 1015,2 hPa 0,0 l/m 0 min 0 min 0 W/m 25,7 km/h (4 Bft) 100,00 %
11.10.2019 04:02 12,6 C 12,2 C 11,7 C 82 % 1015,2 hPa 0,0 l/m 0 min 0 min 0 W/m 22,5 km/h (4 Bft) 100,00 %
11.10.2019 04:04 12,6 C 11,7 C 11,7 C 82 % 1015,2 hPa 0,0 l/m 0 min 0 min 0 W/m 19,3 km/h (3 Bft) 95,74 %
11.10.2019 04:06 12,6 C 11,7 C 11,7 C 82 % 1015,2 hPa 0,0 l/m 0 min 0 min 0 W/m 25,7 km/h (4 Bft) 100,00 %
11.10.2019 04:08 12,6 C 12,2 C 11,7 C 82 % 1015,2 hPa 0,0 l/m 0 min 0 min 0 W/m 19,3 km/h (3 Bft) 100,00 %
11.10.2019 04:10 12,6 C 12,2 C 11,7 C 82 % 1015,2 hPa 0,0 l/m 0 min 0 min 0 W/m 25,7 km/h (4 Bft) 100,00 %
11.10.2019 04:12 12,6 C 12,2 C 11,7 C 82 % 1015,2 hPa 0,0 l/m 0 min 0 min 0 W/m 19,3 km/h (3 Bft) 100,00 %
11.10.2019 04:14 12,6 C 12,2 C 11,7 C 82 % 1015,2 hPa 0,0 l/m 0 min 0 min 0 W/m 29,0 km/h (5 Bft) 97,87 %
11.10.2019 04:16 12,6 C 12,2 C 11,7 C 82 % 1015,1 hPa 0,0 l/m 0 min 0 min 0 W/m 22,5 km/h (4 Bft) 100,00 %
11.10.2019 04:18 12,7 C 12,2 C 11,7 C 82 % 1015,0 hPa 0,0 l/m 0 min 0 min 0 W/m 22,5 km/h (4 Bft) 100,00 %
11.10.2019 04:20 12,7 C 12,2 C 11,7 C 82 % 1015,0 hPa 0,0 l/m 0 min 0 min 0 W/m 22,5 km/h (4 Bft) 100,00 %
11.10.2019 04:22 12,7 C 12,2 C 11,7 C 82 % 1015,0 hPa 0,0 l/m 0 min 0 min 0 W/m 22,5 km/h (4 Bft) 97,83 %
11.10.2019 04:24 12,7 C 12,2 C 11,7 C 82 % 1015,1 hPa 0,0 l/m 0 min 0 min 0 W/m 16,1 km/h (3 Bft) 100,00 %
11.10.2019 04:26 12,7 C 12,2 C 11,7 C 82 % 1015,0 hPa 0,0 l/m 0 min 0 min 0 W/m 22,5 km/h (4 Bft) 100,00 %
11.10.2019 04:28 12,7 C 12,2 C 11,7 C 82 % 1015,1 hPa 0,0 l/m 0 min 0 min 0 W/m 25,7 km/h (4 Bft) 100,00 %
11.10.2019 04:30 12,7 C 12,2 C 11,7 C 82 % 1015,0 hPa 0,0 l/m 0 min 0 min 0 W/m 22,5 km/h (4 Bft) 100,00 %
11.10.2019 04:32 12,7 C 12,2 C 11,7 C 82 % 1015,0 hPa 0,0 l/m 0 min 0 min 0 W/m 29,0 km/h (5 Bft) 97,87 %
11.10.2019 04:34 12,7 C 12,2 C 11,7 C 82 % 1014,9 hPa 0,0 l/m 0 min 0 min 0 W/m 22,5 km/h (4 Bft) 95,65 %
11.10.2019 04:36 12,7 C 12,2 C 11,7 C 82 % 1014,8 hPa 0,0 l/m 0 min 0 min 0 W/m 19,3 km/h (3 Bft) 97,87 %
11.10.2019 04:38 12,7 C 12,2 C 11,7 C 82 % 1014,9 hPa 0,0 l/m 0 min 0 min 0 W/m 25,7 km/h (4 Bft) 97,87 %
11.10.2019 04:40 12,7 C 12,2 C 11,7 C 82 % 1014,9 hPa 0,0 l/m 0 min 0 min 0 W/m 19,3 km/h (3 Bft) 95,74 %
11.10.2019 04:42 12,7 C 12,2 C 11,7 C 82 % 1014,9 hPa 0,0 l/m 0 min 0 min 0 W/m 16,1 km/h (3 Bft) 95,74 %
11.10.2019 04:44 12,7 C 12,2 C 11,7 C 82 % 1014,8 hPa 0,0 l/m 0 min 0 min 0 W/m 16,1 km/h (3 Bft) 95,74 %
11.10.2019 04:46 12,7 C 12,2 C 11,7 C 81 % 1014,9 hPa 0,0 l/m 0 min 0 min 0 W/m 22,5 km/h (4 Bft) 97,83 %
11.10.2019 04:48 12,7 C 12,2 C 11,7 C 81 % 1015,0 hPa 0,0 l/m 0 min 0 min 0 W/m 19,3 km/h (3 Bft) 97,87 %
11.10.2019 04:50 12,7 C 12,2 C 11,7 C 81 % 1015,0 hPa 0,0 l/m 0 min 0 min 0 W/m 19,3 km/h (3 Bft) 97,87 %
11.10.2019 04:52 12,8 C 12,2 C 11,7 C 81 % 1015,0 hPa 0,0 l/m 0 min 0 min 0 W/m 16,1 km/h (3 Bft) 95,74 %
11.10.2019 04:54 12,8 C 12,2 C 11,7 C 81 % 1014,9 hPa 0,0 l/m 0 min 0 min 0 W/m 12,9 km/h (3 Bft) 93,62 %
11.10.2019 04:56 12,8 C 12,2 C 11,7 C 81 % 1014,8 hPa 0,0 l/m 0 min 0 min 0 W/m 19,3 km/h (3 Bft) 97,83 %
11.10.2019 04:58 12,8 C 12,2 C 11,7 C 81 % 1014,8 hPa 0,0 l/m 0 min 0 min 0 W/m 16,1 km/h (3 Bft) 95,74 %
11.10.2019 05:00 12,8 C 12,2 C 11,7 C 81 % 1014,7 hPa 0,0 l/m 0 min 0 min 0 W/m 12,9 km/h (3 Bft) 95,74 %
11.10.2019 05:02 12,8 C 12,2 C 11,7 C 81 % 1014,7 hPa 0,0 l/m 0 min 0 min 0 W/m 25,7 km/h (4 Bft) 95,74 %
11.10.2019 05:04 12,8 C 12,2 C 11,7 C 81 % 1014,7 hPa 0,0 l/m 0 min 0 min 0 W/m 22,5 km/h (4 Bft) 95,74 %
11.10.2019 05:06 12,8 C 12,2 C 11,7 C 81 % 1014,9 hPa 0,0 l/m 0 min 0 min 0 W/m 22,5 km/h (4 Bft) 95,74 %
11.10.2019 05:08 12,8 C 12,2 C 11,7 C 81 % 1014,8 hPa 0,0 l/m 0 min 0 min 0 W/m 19,3 km/h (3 Bft) 95,65 %
11.10.2019 05:10 12,8 C 12,2 C 11,7 C 81 % 1014,8 hPa 0,0 l/m 0 min 0 min 0 W/m 16,1 km/h (3 Bft) 95,74 %
11.10.2019 05:12 12,8 C 12,2 C 11,7 C 81 % 1014,8 hPa 0,0 l/m 0 min 0 min 0 W/m 16,1 km/h (3 Bft) 97,87 %
11.10.2019 05:14 12,8 C 12,2 C 11,7 C 81 % 1014,8 hPa 0,0 l/m 0 min 0 min 0 W/m 25,7 km/h (4 Bft) 91,49 %
11.10.2019 05:16 12,8 C 12,2 C 11,7 C 81 % 1014,8 hPa 0,0 l/m 0 min 0 min 0 W/m 22,5 km/h (4 Bft) 93,62 %
11.10.2019 05:18 12,8 C 12,2 C 11,7 C 82 % 1014,9 hPa 0,0 l/m 0 min 0 min 0 W/m 16,1 km/h (3 Bft) 93,62 %
11.10.2019 05:20 12,8 C 12,2 C 11,7 C 82 % 1014,8 hPa 0,0 l/m 0 min 0 min 0 W/m 22,5 km/h (4 Bft) 91,30 %
11.10.2019 05:22 12,8 C 12,2 C 11,7 C 82 % 1014,8 hPa 0,0 l/m 0 min 0 min 0 W/m 19,3 km/h (3 Bft) 95,74 %
11.10.2019 05:24 12,9 C 12,2 C 11,7 C 82 % 1014,8 hPa 0,0 l/m 0 min 0 min 0 W/m 16,1 km/h (3 Bft) 93,62 %
11.10.2019 05:26 12,9 C 12,2 C 11,7 C 82 % 1014,7 hPa 0,0 l/m 0 min 0 min 0 W/m 25,7 km/h (4 Bft) 89,36 %
11.10.2019 05:28 12,9 C 12,2 C 11,7 C 82 % 1014,7 hPa 0,0 l/m 0 min 0 min 0 W/m 16,1 km/h (3 Bft) 93,62 %
11.10.2019 05:30 12,9 C 12,2 C 11,7 C 82 % 1014,7 hPa 0,0 l/m 0 min 0 min 0 W/m 22,5 km/h (4 Bft) 93,62 %
11.10.2019 05:32 12,9 C 12,2 C 11,7 C 82 % 1014,8 hPa 0,0 l/m 0 min 0 min 0 W/m 25,7 km/h (4 Bft) 95,65 %
11.10.2019 05:34 12,9 C 12,2 C 11,7 C 82 % 1014,7 hPa 0,0 l/m 0 min 0 min 0 W/m 19,3 km/h (3 Bft) 95,74 %
11.10.2019 05:36 12,9 C 12,2 C 11,7 C 82 % 1014,8 hPa 0,0 l/m 0 min 0 min 0 W/m 19,3 km/h (3 Bft) 95,74 %
11.10.2019 05:38 13,0 C 12,2 C 11,7 C 82 % 1014,8 hPa 0,0 l/m 0 min 0 min 0 W/m 25,7 km/h (4 Bft) 93,62 %
11.10.2019 05:40 13,0 C 12,2 C 11,7 C 82 % 1014,7 hPa 0,0 l/m 0 min 0 min 0 W/m 19,3 km/h (3 Bft) 95,74 %
11.10.2019 05:42 13,0 C 12,2 C 11,7 C 82 % 1014,7 hPa 0,0 l/m 0 min 0 min 0 W/m 22,5 km/h (4 Bft) 95,74 %
11.10.2019 05:44 13,0 C 12,2 C 11,7 C 82 % 1014,6 hPa 0,0 l/m 0 min 0 min 0 W/m 12,9 km/h (3 Bft) 95,65 %
11.10.2019 05:46 13,1 C 12,2 C 11,7 C 82 % 1014,6 hPa 0,0 l/m 0 min 0 min 0 W/m 12,9 km/h (3 Bft) 95,74 %
11.10.2019 05:48 13,1 C 12,2 C 11,7 C 82 % 1014,5 hPa 0,0 l/m 0 min 0 min 0 W/m 12,9 km/h (3 Bft) 97,87 %
11.10.2019 05:50 13,1 C 12,2 C 11,7 C 82 % 1014,5 hPa 0,0 l/m 0 min 0 min 0 W/m 16,1 km/h (3 Bft) 95,74 %
11.10.2019 05:52 13,1 C 12,2 C 11,7 C 82 % 1014,5 hPa 0,0 l/m 0 min 0 min 0 W/m 16,1 km/h (3 Bft) 97,87 %
11.10.2019 05:54 13,1 C 12,2 C 11,7 C 82 % 1014,4 hPa 0,0 l/m 0 min 0 min 0 W/m 22,5 km/h (4 Bft) 95,74 %
11.10.2019 05:56 13,1 C 12,2 C 11,7 C 82 % 1014,6 hPa 0,0 l/m 0 min 0 min 0 W/m 16,1 km/h (3 Bft) 97,83 %
11.10.2019 05:58 13,1 C 12,2 C 11,7 C 82 % 1014,6 hPa 0,0 l/m 0 min 0 min 0 W/m 19,3 km/h (3 Bft) 97,87 %
11.10.2019 06:00 13,1 C 12,2 C 11,7 C 82 % 1014,5 hPa 0,0 l/m 0 min 0 min 0 W/m 22,5 km/h (4 Bft) 100,00 %
11.10.2019 06:02 13,1 C 12,2 C 11,7 C 82 % 1014,5 hPa 0,0 l/m 0 min 0 min 0 W/m 22,5 km/h (4 Bft) 100,00 %
11.10.2019 06:04 13,1 C 12,2 C 12,2 C 82 % 1014,4 hPa 0,0 l/m 0 min 0 min 0 W/m 19,3 km/h (3 Bft) 100,00 %
11.10.2019 06:08 13,1 C 12,2 C 12,2 C 82 % 1014,5 hPa 0,0 l/m 0 min 0 min 0 W/m 22,5 km/h (4 Bft) 98,92 %
11.10.2019 06:10 13,1 C 12,2 C 12,2 C 82 % 1014,6 hPa 0,0 l/m 0 min 0 min 0 W/m 19,3 km/h (3 Bft) 100,00 %
11.10.2019 06:12 13,1 C 12,2 C 12,2 C 82 % 1014,6 hPa 0,0 l/m 0 min 0 min 0 W/m 19,3 km/h (3 Bft) 100,00 %
11.10.2019 06:14 13,1 C 12,2 C 12,2 C 82 % 1014,6 hPa 0,0 l/m 0 min 0 min 0 W/m 29,0 km/h (5 Bft) 100,00 %
11.10.2019 06:16 13,2 C 12,2 C 12,2 C 82 % 1014,6 hPa 0,0 l/m 0 min 0 min 0 W/m 19,3 km/h (3 Bft) 100,00 %
11.10.2019 06:18 13,2 C 12,2 C 11,7 C 82 % 1014,6 hPa 0,0 l/m 0 min 0 min 0 W/m 12,9 km/h (3 Bft) 100,00 %
11.10.2019 06:20 13,2 C 12,2 C 11,7 C 82 % 1014,6 hPa 0,0 l/m 0 min 0 min 0 W/m 16,1 km/h (3 Bft) 97,83 %
11.10.2019 06:22 13,2 C 12,2 C 11,7 C 82 % 1014,6 hPa 0,0 l/m 0 min 0 min 0 W/m 16,1 km/h (3 Bft) 100,00 %
11.10.2019 06:24 13,2 C 12,2 C 11,7 C 82 % 1014,6 hPa 0,0 l/m 0 min 0 min 0 W/m 19,3 km/h (3 Bft) 100,00 %
11.10.2019 06:26 13,2 C 12,2 C 11,7 C 82 % 1014,6 hPa 0,0 l/m 0 min 0 min 0 W/m 16,1 km/h (3 Bft) 100,00 %
11.10.2019 06:28 13,2 C 12,2 C 11,7 C 82 % 1014,5 hPa 0,0 l/m 0 min 0 min 0 W/m 12,9 km/h (3 Bft) 100,00 %
11.10.2019 06:30 13,2 C 12,2 C 12,2 C 82 % 1014,5 hPa 0,0 l/m 0 min 0 min 0 W/m 16,1 km/h (3 Bft) 97,83 %
11.10.2019 06:32 13,2 C 12,2 C 11,7 C 82 % 1014,4 hPa 0,0 l/m 0 min 0 min 0 W/m 12,9 km/h (3 Bft) 100,00 %
11.10.2019 06:34 13,2 C 12,2 C 11,7 C 82 % 1014,4 hPa 0,0 l/m 0 min 0 min 0 W/m 12,9 km/h (3 Bft) 100,00 %
11.10.2019 06:36 13,2 C 12,2 C 11,7 C 82 % 1014,4 hPa 0,0 l/m 0 min 0 min 0 W/m 22,5 km/h (4 Bft) 97,87 %
11.10.2019 06:38 13,2 C 12,2 C 12,2 C 82 % 1014,3 hPa 0,0 l/m 0 min 0 min 0 W/m 22,5 km/h (4 Bft) 100,00 %
11.10.2019 06:40 13,2 C 12,2 C 12,2 C 82 % 1014,4 hPa 0,0 l/m 0 min 0 min 0 W/m 16,1 km/h (3 Bft) 100,00 %
11.10.2019 06:42 13,2 C 12,2 C 12,2 C 82 % 1014,4 hPa 0,0 l/m 0 min 0 min 0 W/m 19,3 km/h (3 Bft) 100,00 %
11.10.2019 06:44 13,2 C 12,8 C 12,2 C 82 % 1014,4 hPa 0,0 l/m 0 min 0 min 0 W/m 22,5 km/h (4 Bft) 97,87 %
11.10.2019 06:46 13,2 C 12,8 C 12,2 C 82 % 1014,5 hPa 0,0 l/m 0 min 0 min 0 W/m 19,3 km/h (3 Bft) 100,00 %
11.10.2019 06:48 13,2 C 12,8 C 12,2 C 82 % 1014,5 hPa 0,0 l/m 0 min 0 min 0 W/m 16,1 km/h (3 Bft) 100,00 %
11.10.2019 06:50 13,2 C 12,8 C 12,2 C 82 % 1014,5 hPa 0,0 l/m 0 min 0 min 0 W/m 19,3 km/h (3 Bft) 100,00 %
11.10.2019 06:52 13,2 C 12,8 C 12,2 C 82 % 1014,4 hPa 0,0 l/m 0 min 0 min 0 W/m 16,1 km/h (3 Bft) 100,00 %
11.10.2019 06:54 13,2 C 12,8 C 12,2 C 83 % 1014,4 hPa 0,0 l/m 0 min 0 min 0 W/m 19,3 km/h (3 Bft) 100,00 %
11.10.2019 06:56 13,2 C 12,8 C 12,2 C 83 % 1014,4 hPa 0,0 l/m 0 min 0 min 0 W/m 16,1 km/h (3 Bft) 100,00 %
11.10.2019 06:58 13,3 C 12,8 C 12,2 C 83 % 1014,5 hPa 0,0 l/m 0 min 0 min 0 W/m 22,5 km/h (4 Bft) 100,00 %
11.10.2019 07:00 13,3 C 12,8 C 12,2 C 83 % 1014,4 hPa 0,0 l/m 0 min 0 min 0 W/m 19,3 km/h (3 Bft) 100,00 %
11.10.2019 07:02 13,3 C 12,8 C 12,2 C 83 % 1014,4 hPa 0,0 l/m 0 min 0 min 0 W/m 22,5 km/h (4 Bft) 100,00 %
11.10.2019 07:04 13,3 C 12,8 C 12,2 C 82 % 1014,3 hPa 0,0 l/m 0 min 0 min 0 W/m 16,1 km/h (3 Bft) 100,00 %
11.10.2019 07:06 13,3 C 12,8 C 12,2 C 82 % 1014,2 hPa 0,0 l/m 0 min 0 min 0 W/m 25,7 km/h (4 Bft) 100,00 %
11.10.2019 07:08 13,3 C 12,8 C 12,2 C 82 % 1014,1 hPa 0,0 l/m 0 min 0 min 0 W/m 16,1 km/h (3 Bft) 100,00 %
11.10.2019 07:10 13,3 C 12,8 C 12,2 C 82 % 1014,1 hPa 0,0 l/m 0 min 0 min 0 W/m 12,9 km/h (3 Bft) 100,00 %
11.10.2019 07:12 13,3 C 12,8 C 12,2 C 82 % 1014,1 hPa 0,0 l/m 0 min 0 min 0 W/m 22,5 km/h (4 Bft) 100,00 %
11.10.2019 07:14 13,4 C 12,8 C 12,2 C 82 % 1014,0 hPa 0,0 l/m 0 min 0 min 0 W/m 29,0 km/h (5 Bft) 100,00 %
11.10.2019 07:16 13,4 C 12,8 C 12,2 C 82 % 1014,1 hPa 0,0 l/m 0 min 0 min 0 W/m 22,5 km/h (4 Bft) 100,00 %
11.10.2019 07:18 13,4 C 12,8 C 12,2 C 82 % 1014,1 hPa 0,0 l/m 0 min 0 min 0 W/m 19,3 km/h (3 Bft) 100,00 %
11.10.2019 07:20 13,4 C 11,7 C 11,7 C 82 % 1014,0 hPa 0,0 l/m 0 min 2 min 0 W/m 19,3 km/h (3 Bft) 97,87 %
11.10.2019 07:22 13,5 C 11,7 C 11,7 C 82 % 1014,0 hPa 0,0 l/m 0 min 2 min 0 W/m 19,3 km/h (3 Bft) 100,00 %
11.10.2019 07:24 13,5 C 11,7 C 11,7 C 83 % 1014,0 hPa 0,0 l/m 0 min 2 min 0 W/m 19,3 km/h (3 Bft) 93,62 %
11.10.2019 07:26 13,5 C 11,7 C 11,7 C 83 % 1014,0 hPa 0,0 l/m 0 min 2 min 0 W/m 19,3 km/h (3 Bft) 97,87 %
11.10.2019 07:30 13,5 C 11,7 C 11,1 C 83 % 1013,9 hPa 0,0 l/m 0 min 0 min 0 W/m 19,3 km/h (3 Bft) 100,00 %
11.10.2019 07:32 13,6 C 11,7 C 11,1 C 83 % 1013,9 hPa 0,0 l/m 0 min 0 min 0 W/m 22,5 km/h (4 Bft) 100,00 %
11.10.2019 07:34 13,6 C 11,7 C 11,7 C 83 % 1013,9 hPa 0,0 l/m 0 min 0 min 0 W/m 22,5 km/h (4 Bft) 100,00 %
11.10.2019 07:36 13,5 C 12,2 C 11,7 C 83 % 1014,0 hPa 0,0 l/m 0 min 0 min 0 W/m 22,5 km/h (4 Bft) 98,18 %
11.10.2019 07:38 13,6 C 12,2 C 11,7 C 83 % 1014,0 hPa 0,0 l/m 0 min 0 min 0 W/m 19,3 km/h (3 Bft) 98,00 %
11.10.2019 07:40 13,6 C 12,2 C 12,2 C 83 % 1014,0 hPa 0,0 l/m 0 min 2 min 0 W/m 25,7 km/h (4 Bft) 100,00 %
11.10.2019 07:42 13,6 C 12,2 C 11,7 C 83 % 1014,1 hPa 0,0 l/m 0 min 2 min 0 W/m 22,5 km/h (4 Bft) 97,87 %
11.10.2019 07:44 13,6 C 11,7 C 11,7 C 83 % 1014,0 hPa 0,0 l/m 0 min 2 min 0 W/m 16,1 km/h (3 Bft) 97,87 %
11.10.2019 07:46 13,6 C 11,7 C 11,7 C 83 % 1013,9 hPa 0,0 l/m 0 min 2 min 0 W/m 19,3 km/h (3 Bft) 97,37 %
11.10.2019 07:48 13,6 C 12,2 C 11,7 C 83 % 1013,9 hPa 0,0 l/m 0 min 0 min 0 W/m 16,1 km/h (3 Bft) 97,87 %
11.10.2019 07:50 13,6 C 12,8 C 11,7 C 83 % 1013,9 hPa 0,0 l/m 0 min 0 min 0 W/m 22,5 km/h (4 Bft) 97,92 %
11.10.2019 07:52 13,6 C 12,8 C 12,2 C 83 % 1013,9 hPa 0,0 l/m 0 min 0 min 0 W/m 25,7 km/h (4 Bft) 97,92 %
11.10.2019 07:54 13,6 C 12,8 C 12,2 C 83 % 1013,9 hPa 0,0 l/m 0 min 0 min 0 W/m 16,1 km/h (3 Bft) 93,62 %
11.10.2019 07:56 13,6 C 12,8 C 12,2 C 83 % 1013,8 hPa 0,0 l/m 0 min 0 min 0 W/m 16,1 km/h (3 Bft) 95,74 %
11.10.2019 07:58 13,6 C 12,8 C 12,2 C 83 % 1013,9 hPa 0,0 l/m 0 min 0 min 0 W/m 29,0 km/h (5 Bft) 95,74 %
11.10.2019 08:00 13,6 C 12,8 C 12,2 C 82 % 1013,9 hPa 0,0 l/m 0 min 0 min 0 W/m 25,7 km/h (4 Bft) 95,74 %
11.10.2019 08:02 13,6 C 12,8 C 12,2 C 82 % 1013,9 hPa 0,0 l/m 0 min 0 min 0 W/m 25,7 km/h (4 Bft) 93,02 %
11.10.2019 08:04 13,6 C 12,8 C 12,2 C 82 % 1013,9 hPa 0,0 l/m 0 min 0 min 1 W/m 19,3 km/h (3 Bft) 94,00 %
11.10.2019 08:06 13,7 C 13,3 C 12,2 C 82 % 1013,9 hPa 0,0 l/m 0 min 0 min 5 W/m 19,3 km/h (3 Bft) 91,49 %
11.10.2019 08:08 13,7 C 13,3 C 12,2 C 82 % 1013,8 hPa 0,0 l/m 0 min 0 min 5 W/m 19,3 km/h (3 Bft) 93,62 %
11.10.2019 08:10 13,7 C 13,3 C 12,8 C 82 % 1013,8 hPa 0,0 l/m 0 min 0 min 7 W/m 19,3 km/h (3 Bft) 87,23 %
11.10.2019 08:12 13,7 C 13,3 C 12,8 C 82 % 1013,9 hPa 0,0 l/m 0 min 0 min 9 W/m 22,5 km/h (4 Bft) 89,36 %
11.10.2019 08:14 13,7 C 13,3 C 12,8 C 82 % 1013,7 hPa 0,0 l/m 0 min 0 min 9 W/m 29,0 km/h (5 Bft) 95,74 %
11.10.2019 08:16 13,8 C 13,3 C 12,8 C 82 % 1013,9 hPa 0,0 l/m 0 min 0 min 9 W/m 22,5 km/h (4 Bft) 93,48 %
11.10.2019 08:18 13,8 C 13,3 C 12,8 C 82 % 1013,8 hPa 0,0 l/m 0 min 0 min 11 W/m 25,7 km/h (4 Bft) 93,62 %
11.10.2019 08:20 13,8 C 13,3 C 12,8 C 82 % 1013,8 hPa 0,0 l/m 0 min 0 min 11 W/m 16,1 km/h (3 Bft) 93,62 %
11.10.2019 08:22 13,8 C 13,3 C 12,8 C 82 % 1013,8 hPa 0,0 l/m 0 min 0 min 12 W/m 16,1 km/h (3 Bft) 93,62 %
11.10.2019 08:24 13,8 C 13,3 C 12,8 C 82 % 1013,8 hPa 0,0 l/m 0 min 0 min 12 W/m 22,5 km/h (4 Bft) 95,74 %
11.10.2019 08:26 13,8 C 13,3 C 12,8 C 82 % 1013,8 hPa 0,0 l/m 0 min 0 min 13 W/m 22,5 km/h (4 Bft) 93,62 %
11.10.2019 08:28 13,9 C 13,3 C 12,8 C 82 % 1013,9 hPa 0,0 l/m 0 min 0 min 14 W/m 16,1 km/h (3 Bft) 93,48 %
11.10.2019 08:30 13,9 C 13,3 C 12,8 C 82 % 1013,9 hPa 0,0 l/m 0 min 0 min 14 W/m 22,5 km/h (4 Bft) 91,49 %
11.10.2019 08:32 13,9 C 13,3 C 12,8 C 82 % 1014,0 hPa 0,0 l/m 0 min 0 min 15 W/m 22,5 km/h (4 Bft) 93,62 %
11.10.2019 08:34 13,9 C 13,3 C 12,8 C 82 % 1013,9 hPa 0,0 l/m 0 min 0 min 16 W/m 16,1 km/h (3 Bft) 93,62 %
11.10.2019 08:36 13,9 C 13,3 C 12,8 C 82 % 1014,0 hPa 0,0 l/m 0 min 0 min 17 W/m 22,5 km/h (4 Bft) 93,62 %
11.10.2019 08:38 14,0 C 13,3 C 12,8 C 82 % 1014,0 hPa 0,0 l/m 0 min 0 min 18 W/m 22,5 km/h (4 Bft) 95,74 %
11.10.2019 08:40 14,0 C 13,3 C 12,8 C 82 % 1014,0 hPa 0,0 l/m 0 min 0 min 19 W/m 19,3 km/h (3 Bft) 93,48 %
11.10.2019 08:42 14,0 C 13,3 C 12,8 C 82 % 1014,0 hPa 0,0 l/m 0 min 0 min 21 W/m 19,3 km/h (3 Bft) 100,00 %
11.10.2019 08:44 14,0 C 13,3 C 12,8 C 82 % 1014,0 hPa 0,0 l/m 0 min 0 min 21 W/m 19,3 km/h (3 Bft) 96,00 %
11.10.2019 08:46 14,0 C 13,3 C 12,8 C 82 % 1014,0 hPa 0,0 l/m 0 min 0 min 22 W/m 16,1 km/h (3 Bft) 95,74 %
11.10.2019 08:48 14,0 C 13,3 C 12,8 C 82 % 1014,1 hPa 0,0 l/m 0 min 0 min 23 W/m 19,3 km/h (3 Bft) 95,74 %
11.10.2019 08:50 14,1 C 13,3 C 12,8 C 82 % 1014,1 hPa 0,0 l/m 0 min 0 min 24 W/m 19,3 km/h (3 Bft) 97,92 %
11.10.2019 08:52 14,1 C 13,3 C 12,8 C 82 % 1014,1 hPa 0,0 l/m 0 min 0 min 25 W/m 16,1 km/h (3 Bft) 97,14 %
11.10.2019 08:54 14,1 C 13,3 C 12,8 C 82 % 1014,1 hPa 0,0 l/m 0 min 0 min 26 W/m 16,1 km/h (3 Bft) 97,87 %
11.10.2019 08:56 14,1 C 13,3 C 12,8 C 82 % 1014,1 hPa 0,0 l/m 0 min 0 min 26 W/m 22,5 km/h (4 Bft) 95,74 %
11.10.2019 08:58 14,1 C 13,3 C 12,8 C 82 % 1014,1 hPa 0,0 l/m 0 min 0 min 26 W/m 22,5 km/h (4 Bft) 95,74 %
11.10.2019 09:00 14,1 C 13,3 C 12,8 C 82 % 1014,1 hPa 0,0 l/m 0 min 0 min 26 W/m 19,3 km/h (3 Bft) 100,00 %
11.10.2019 09:02 14,1 C 13,3 C 12,8 C 82 % 1014,0 hPa 0,0 l/m 0 min 0 min 26 W/m 12,9 km/h (3 Bft) 100,00 %
11.10.2019 09:04 14,1 C 13,3 C 12,8 C 82 % 1014,0 hPa 0,0 l/m 0 min 0 min 26 W/m 16,1 km/h (3 Bft) 100,00 %
11.10.2019 09:06 14,1 C 13,3 C 12,8 C 82 % 1014,0 hPa 0,0 l/m 0 min 0 min 26 W/m 22,5 km/h (4 Bft) 97,87 %
11.10.2019 09:08 14,1 C 13,3 C 12,8 C 82 % 1013,9 hPa 0,0 l/m 0 min 0 min 25 W/m 16,1 km/h (3 Bft) 97,87 %
11.10.2019 09:10 14,1 C 13,3 C 12,8 C 82 % 1013,9 hPa 0,0 l/m 0 min 0 min 25 W/m 25,7 km/h (4 Bft) 100,00 %
11.10.2019 09:12 14,1 C 13,3 C 12,8 C 82 % 1013,9 hPa 0,0 l/m 0 min 0 min 25 W/m 16,1 km/h (3 Bft) 100,00 %
11.10.2019 09:14 14,1 C 13,3 C 12,8 C 82 % 1013,9 hPa 0,0 l/m 0 min 0 min 25 W/m 19,3 km/h (3 Bft) 100,00 %
11.10.2019 09:16 14,1 C 13,3 C 12,8 C 83 % 1014,0 hPa 0,0 l/m 0 min 0 min 25 W/m 12,9 km/h (3 Bft) 100,00 %
11.10.2019 09:18 14,1 C 13,3 C 12,8 C 83 % 1014,0 hPa 0,0 l/m 0 min 0 min 27 W/m 12,9 km/h (3 Bft) 100,00 %
11.10.2019 09:20 14,1 C 13,3 C 12,8 C 83 % 1014,1 hPa 0,0 l/m 0 min 0 min 32 W/m 16,1 km/h (3 Bft) 100,00 %
11.10.2019 09:22 14,1 C 13,3 C 12,8 C 83 % 1014,1 hPa 0,0 l/m 0 min 0 min 37 W/m 12,9 km/h (3 Bft) 100,00 %
11.10.2019 09:24 14,1 C 13,3 C 12,8 C 83 % 1014,1 hPa 0,0 l/m 0 min 0 min 35 W/m 16,1 km/h (3 Bft) 100,00 %
11.10.2019 09:26 14,1 C 13,3 C 12,8 C 83 % 1014,1 hPa 0,0 l/m 0 min 0 min 35 W/m 16,1 km/h (3 Bft) 100,00 %
11.10.2019 09:28 14,1 C 13,3 C 12,8 C 83 % 1014,1 hPa 0,0 l/m 0 min 0 min 35 W/m 16,1 km/h (3 Bft) 100,00 %
11.10.2019 09:30 14,1 C 13,3 C 12,8 C 83 % 1014,2 hPa 0,0 l/m 0 min 0 min 42 W/m 12,9 km/h (3 Bft) 100,00 %
11.10.2019 09:32 14,1 C 13,3 C 12,8 C 83 % 1014,1 hPa 0,0 l/m 0 min 0 min 51 W/m 12,9 km/h (3 Bft) 100,00 %
11.10.2019 09:34 14,1 C 13,3 C 12,8 C 83 % 1014,2 hPa 0,0 l/m 0 min 0 min 53 W/m 19,3 km/h (3 Bft) 100,00 %
11.10.2019 09:36 14,1 C 13,3 C 12,8 C 83 % 1014,0 hPa 0,0 l/m 0 min 0 min 50 W/m 19,3 km/h (3 Bft) 97,87 %
11.10.2019 09:38 14,1 C 13,3 C 12,8 C 83 % 1014,1 hPa 0,0 l/m 0 min 0 min 47 W/m 19,3 km/h (3 Bft) 100,00 %
11.10.2019 09:40 14,1 C 13,3 C 12,8 C 83 % 1014,1 hPa 0,0 l/m 0 min 0 min 49 W/m 16,1 km/h (3 Bft) 97,87 %
11.10.2019 09:42 14,1 C 13,9 C 12,8 C 83 % 1014,2 hPa 0,0 l/m 0 min 0 min 52 W/m 22,5 km/h (4 Bft) 100,00 %
11.10.2019 09:44 14,1 C 13,9 C 12,8 C 83 % 1014,2 hPa 0,0 l/m 0 min 0 min 51 W/m 16,1 km/h (3 Bft) 100,00 %
11.10.2019 09:46 14,1 C 13,9 C 12,8 C 83 % 1014,2 hPa 0,0 l/m 0 min 0 min 52 W/m 16,1 km/h (3 Bft) 98,31 %
11.10.2019 09:48 14,2 C 13,9 C 12,8 C 83 % 1014,2 hPa 0,0 l/m 0 min 0 min 61 W/m 22,5 km/h (4 Bft) 100,00 %
11.10.2019 09:50 14,2 C 13,9 C 12,8 C 83 % 1014,2 hPa 0,0 l/m 0 min 0 min 66 W/m 22,5 km/h (4 Bft) 100,00 %
11.10.2019 09:52 14,2 C 13,9 C 13,3 C 83 % 1014,2 hPa 0,0 l/m 0 min 0 min 67 W/m 12,9 km/h (3 Bft) 100,00 %
11.10.2019 09:54 14,2 C 13,9 C 13,3 C 84 % 1014,2 hPa 0,0 l/m 0 min 0 min 67 W/m 12,9 km/h (3 Bft) 100,00 %
11.10.2019 09:56 14,2 C 13,9 C 13,3 C 84 % 1014,3 hPa 0,0 l/m 0 min 0 min 68 W/m 19,3 km/h (3 Bft) 100,00 %
11.10.2019 09:58 14,2 C 13,9 C 13,3 C 84 % 1014,2 hPa 0,0 l/m 0 min 0 min 65 W/m 16,1 km/h (3 Bft) 100,00 %
11.10.2019 10:00 14,3 C 13,9 C 13,3 C 84 % 1014,2 hPa 0,0 l/m 0 min 0 min 67 W/m 16,1 km/h (3 Bft) 100,00 %
11.10.2019 10:02 14,3 C 13,9 C 13,3 C 84 % 1014,2 hPa 0,0 l/m 0 min 0 min 71 W/m 22,5 km/h (4 Bft) 97,67 %
11.10.2019 10:04 14,3 C 13,9 C 13,3 C 84 % 1014,2 hPa 0,0 l/m 0 min 2 min 76 W/m 22,5 km/h (4 Bft) 100,00 %
11.10.2019 10:06 14,3 C 13,9 C 12,8 C 84 % 1014,2 hPa 0,0 l/m 0 min 0 min 71 W/m 22,5 km/h (4 Bft) 100,00 %
11.10.2019 10:08 14,3 C 13,9 C 13,3 C 84 % 1014,2 hPa 0,0 l/m 0 min 0 min 61 W/m 19,3 km/h (3 Bft) 100,00 %
11.10.2019 10:10 14,3 C 13,9 C 13,3 C 84 % 1014,3 hPa 0,0 l/m 0 min 0 min 57 W/m 19,3 km/h (3 Bft) 97,87 %
11.10.2019 10:12 14,3 C 13,9 C 13,3 C 84 % 1014,3 hPa 0,0 l/m 0 min 0 min 60 W/m 19,3 km/h (3 Bft) 100,00 %
11.10.2019 10:14 14,3 C 13,9 C 13,3 C 84 % 1014,3 hPa 0,0 l/m 0 min 0 min 59 W/m 22,5 km/h (4 Bft) 100,00 %
11.10.2019 10:16 14,3 C 13,9 C 13,3 C 83 % 1014,2 hPa 0,0 l/m 0 min 0 min 58 W/m 9,7 km/h (2 Bft) 100,00 %
11.10.2019 10:18 14,3 C 13,9 C 13,3 C 84 % 1014,3 hPa 0,0 l/m 0 min 0 min 55 W/m 25,7 km/h (4 Bft) 100,00 %
11.10.2019 10:20 14,3 C 13,9 C 13,3 C 83 % 1014,3 hPa 0,0 l/m 0 min 0 min 59 W/m 19,3 km/h (3 Bft) 100,00 %
11.10.2019 10:22 14,3 C 13,9 C 13,3 C 83 % 1014,4 hPa 0,0 l/m 0 min 2 min 67 W/m 16,1 km/h (3 Bft) 100,00 %
11.10.2019 10:24 14,3 C 13,9 C 13,3 C 83 % 1014,5 hPa 0,0 l/m 0 min 0 min 77 W/m 19,3 km/h (3 Bft) 100,00 %
11.10.2019 10:26 14,3 C 13,9 C 13,3 C 84 % 1014,5 hPa 0,0 l/m 0 min 0 min 78 W/m 16,1 km/h (3 Bft) 100,00 %
11.10.2019 10:28 14,3 C 13,9 C 13,3 C 84 % 1014,4 hPa 0,0 l/m 0 min 0 min 82 W/m 16,1 km/h (3 Bft) 97,92 %
11.10.2019 10:30 14,3 C 13,9 C 13,3 C 84 % 1014,5 hPa 0,0 l/m 0 min 0 min 83 W/m 22,5 km/h (4 Bft) 100,00 %
11.10.2019 10:32 14,4 C 13,9 C 13,3 C 84 % 1014,4 hPa 0,0 l/m 0 min 0 min 80 W/m 22,5 km/h (4 Bft) 93,62 %
11.10.2019 10:34 14,4 C 14,4 C 13,3 C 84 % 1014,4 hPa 0,0 l/m 0 min 0 min 82 W/m 16,1 km/h (3 Bft) 97,83 %
11.10.2019 10:36 14,4 C 14,4 C 13,3 C 84 % 1014,4 hPa 0,0 l/m 0 min 0 min 85 W/m 25,7 km/h (4 Bft) 97,87 %
11.10.2019 10:38 14,4 C 14,4 C 13,3 C 84 % 1014,4 hPa 0,0 l/m 0 min 0 min 84 W/m 25,7 km/h (4 Bft) 97,87 %
11.10.2019 10:40 14,4 C 14,4 C 13,3 C 84 % 1014,4 hPa 0,0 l/m 0 min 0 min 89 W/m 19,3 km/h (3 Bft) 97,87 %
11.10.2019 10:42 14,5 C 14,4 C 13,9 C 84 % 1014,3 hPa 0,0 l/m 0 min 0 min 105 W/m 19,3 km/h (3 Bft) 95,74 %
11.10.2019 10:44 14,5 C 14,4 C 13,9 C 84 % 1014,4 hPa 0,0 l/m 0 min 0 min 115 W/m 19,3 km/h (3 Bft) 97,87 %
11.10.2019 10:46 14,6 C 14,4 C 13,9 C 84 % 1014,4 hPa 0,0 l/m 0 min 0 min 111 W/m 22,5 km/h (4 Bft) 95,65 %
11.10.2019 10:48 14,6 C 14,4 C 13,9 C 84 % 1014,4 hPa 0,0 l/m 0 min 0 min 96 W/m 22,5 km/h (4 Bft) 97,22 %
11.10.2019 10:50 14,6 C 14,4 C 13,9 C 84 % 1014,4 hPa 0,0 l/m 0 min 0 min 85 W/m 29,0 km/h (5 Bft) 95,83 %
11.10.2019 10:52 14,6 C 14,4 C 13,9 C 83 % 1014,5 hPa 0,0 l/m 0 min 0 min 77 W/m 29,0 km/h (5 Bft) 95,74 %
11.10.2019 10:54 14,7 C 14,4 C 13,9 C 83 % 1014,4 hPa 0,0 l/m 0 min 0 min 72 W/m 32,2 km/h (5 Bft) 94,44 %
11.10.2019 10:56 14,7 C 14,4 C 13,9 C 83 % 1014,4 hPa 0,0 l/m 0 min 0 min 76 W/m 22,5 km/h (4 Bft) 95,74 %
11.10.2019 10:58 14,7 C 14,4 C 13,9 C 83 % 1014,3 hPa 0,0 l/m 0 min 0 min 80 W/m 22,5 km/h (4 Bft) 95,65 %
11.10.2019 11:00 14,7 C 14,4 C 13,9 C 83 % 1014,4 hPa 0,0 l/m 0 min 0 min 99 W/m 22,5 km/h (4 Bft) 95,74 %
11.10.2019 11:02 14,7 C 14,4 C 13,9 C 83 % 1014,3 hPa 0,0 l/m 0 min 0 min 108 W/m 22,5 km/h (4 Bft) 90,00 %
11.10.2019 11:04 14,8 C 14,4 C 13,9 C 83 % 1014,3 hPa 0,0 l/m 0 min 0 min 122 W/m 22,5 km/h (4 Bft) 97,30 %
11.10.2019 11:06 14,8 C 14,4 C 13,9 C 83 % 1014,3 hPa 0,0 l/m 0 min 0 min 106 W/m 22,5 km/h (4 Bft) 93,48 %
11.10.2019 11:08 14,8 C 14,4 C 13,9 C 83 % 1014,3 hPa 0,0 l/m 0 min 0 min 94 W/m 19,3 km/h (3 Bft) 93,62 %
11.10.2019 11:10 14,8 C 14,4 C 13,9 C 83 % 1014,3 hPa 0,0 l/m 0 min 0 min 98 W/m 29,0 km/h (5 Bft) 95,74 %
11.10.2019 11:12 14,8 C 14,4 C 13,9 C 83 % 1014,3 hPa 0,0 l/m 0 min 0 min 102 W/m 19,3 km/h (3 Bft) 95,74 %
11.10.2019 11:14 14,9 C 15,0 C 13,9 C 83 % 1014,3 hPa 0,0 l/m 0 min 0 min 99 W/m 12,9 km/h (3 Bft) 95,74 %
11.10.2019 11:16 14,9 C 14,4 C 13,9 C 83 % 1014,2 hPa 0,0 l/m 0 min 0 min 88 W/m 29,0 km/h (5 Bft) 97,87 %
11.10.2019 11:18 14,9 C 14,4 C 13,9 C 83 % 1014,2 hPa 0,0 l/m 0 min 0 min 83 W/m 12,9 km/h (3 Bft) 94,44 %
11.10.2019 11:20 14,9 C 14,4 C 13,9 C 83 % 1014,3 hPa 0,0 l/m 0 min 0 min 70 W/m 19,3 km/h (3 Bft) 93,88 %
11.10.2019 11:22 14,9 C 14,4 C 13,9 C 83 % 1014,3 hPa 0,0 l/m 0 min 0 min 64 W/m 29,0 km/h (5 Bft) 93,62 %
11.10.2019 11:24 14,9 C 14,4 C 13,9 C 83 % 1014,3 hPa 0,0 l/m 0 min 0 min 60 W/m 22,5 km/h (4 Bft) 95,74 %
11.10.2019 11:26 14,9 C 14,4 C 13,9 C 84 % 1014,4 hPa 0,0 l/m 0 min 0 min 57 W/m 25,7 km/h (4 Bft) 95,74 %
11.10.2019 11:28 15,0 C 14,4 C 13,9 C 84 % 1014,3 hPa 0,0 l/m 0 min 0 min 58 W/m 25,7 km/h (4 Bft) 97,30 %
11.10.2019 11:30 15,0 C 14,4 C 13,9 C 84 % 1014,4 hPa 0,0 l/m 0 min 0 min 58 W/m 25,7 km/h (4 Bft) 93,48 %
11.10.2019 11:32 15,0 C 14,4 C 13,9 C 84 % 1014,4 hPa 0,0 l/m 0 min 0 min 53 W/m 25,7 km/h (4 Bft) 96,30 %
11.10.2019 11:34 15,0 C 14,4 C 13,9 C 84 % 1014,3 hPa 0,0 l/m 0 min 0 min 52 W/m 19,3 km/h (3 Bft) 95,74 %
11.10.2019 11:36 15,0 C 14,4 C 13,9 C 84 % 1014,4 hPa 0,0 l/m 0 min 0 min 53 W/m 19,3 km/h (3 Bft) 95,74 %
11.10.2019 11:38 15,0 C 14,4 C 13,9 C 84 % 1014,4 hPa 0,0 l/m 0 min 0 min 54 W/m 16,1 km/h (3 Bft) 95,74 %
11.10.2019 11:40 15,0 C 14,4 C 13,9 C 84 % 1014,4 hPa 0,0 l/m 0 min 0 min 52 W/m 22,5 km/h (4 Bft) 97,87 %
11.10.2019 11:42 15,1 C 14,4 C 13,9 C 84 % 1014,3 hPa 0,0 l/m 0 min 0 min 48 W/m 29,0 km/h (5 Bft) 95,74 %
11.10.2019 11:44 15,1 C 14,4 C 13,9 C 85 % 1014,3 hPa 0,0 l/m 0 min 0 min 45 W/m 22,5 km/h (4 Bft) 95,65 %
11.10.2019 11:46 15,1 C 14,4 C 13,9 C 85 % 1014,3 hPa 0,0 l/m 0 min 0 min 44 W/m 12,9 km/h (3 Bft) 93,62 %
11.10.2019 11:48 15,1 C 14,4 C 13,9 C 85 % 1014,3 hPa 0,0 l/m 0 min 0 min 49 W/m 25,7 km/h (4 Bft) 98,00 %
11.10.2019 11:50 15,1 C 14,4 C 13,9 C 85 % 1014,4 hPa 0,0 l/m 0 min 2 min 55 W/m 22,5 km/h (4 Bft) 97,30 %
11.10.2019 11:52 15,1 C 14,4 C 13,9 C 85 % 1014,2 hPa 0,0 l/m 0 min 0 min 57 W/m 25,7 km/h (4 Bft) 97,83 %
11.10.2019 11:54 15,1 C 14,4 C 13,9 C 85 % 1014,3 hPa 0,0 l/m 0 min 0 min 54 W/m 25,7 km/h (4 Bft) 97,87 %
11.10.2019 11:56 15,1 C 14,4 C 13,9 C 85 % 1014,3 hPa 0,0 l/m 0 min 0 min 53 W/m 19,3 km/h (3 Bft) 93,62 %
11.10.2019 11:58 15,1 C 14,4 C 13,9 C 85 % 1014,2 hPa 0,0 l/m 0 min 0 min 56 W/m 16,1 km/h (3 Bft) 98,15 %
11.10.2019 12:00 15,1 C 14,4 C 13,9 C 85 % 1014,3 hPa 0,0 l/m 0 min 2 min 64 W/m 35,4 km/h (5 Bft) 97,87 %
11.10.2019 12:02 15,1 C 14,4 C 13,9 C 85 % 1014,3 hPa 0,0 l/m 0 min 0 min 67 W/m 25,7 km/h (4 Bft) 97,87 %
11.10.2019 12:04 15,1 C 14,4 C 13,9 C 85 % 1014,1 hPa 0,0 l/m 0 min 0 min 69 W/m 38,6 km/h (5 Bft) 95,74 %
11.10.2019 12:08 15,1 C 14,4 C 13,9 C 85 % 1014,1 hPa 0,0 l/m 0 min 0 min 72 W/m 35,4 km/h (5 Bft) 97,85 %
11.10.2019 12:10 15,1 C 14,4 C 13,9 C 85 % 1014,1 hPa 0,0 l/m 0 min 0 min 65 W/m 22,5 km/h (4 Bft) 100,00 %
11.10.2019 12:12 15,2 C 14,4 C 13,9 C 85 % 1014,1 hPa 0,0 l/m 0 min 0 min 67 W/m 25,7 km/h (4 Bft) 100,00 %
11.10.2019 12:14 15,2 C 14,4 C 13,9 C 85 % 1014,2 hPa 0,0 l/m 0 min 0 min 61 W/m 25,7 km/h (4 Bft) 100,00 %
11.10.2019 12:16 15,2 C 14,4 C 13,9 C 85 % 1014,1 hPa 0,0 l/m 0 min 0 min 57 W/m 29,0 km/h (5 Bft) 100,00 %
11.10.2019 12:18 15,2 C 14,4 C 13,9 C 85 % 1014,0 hPa 0,0 l/m 0 min 0 min 60 W/m 25,7 km/h (4 Bft) 100,00 %
11.10.2019 12:20 15,2 C 14,4 C 13,9 C 85 % 1014,1 hPa 0,0 l/m 0 min 0 min 64 W/m 22,5 km/h (4 Bft) 100,00 %
11.10.2019 12:22 15,2 C 14,4 C 13,9 C 85 % 1014,0 hPa 0,0 l/m 0 min 0 min 66 W/m 19,3 km/h (3 Bft) 100,00 %
11.10.2019 12:24 15,2 C 14,4 C 13,9 C 85 % 1014,1 hPa 0,0 l/m 0 min 0 min 72 W/m 29,0 km/h (5 Bft) 95,74 %
11.10.2019 12:26 15,2 C 15,0 C 13,9 C 85 % 1014,0 hPa 0,0 l/m 0 min 0 min 79 W/m 41,8 km/h (6 Bft) 100,00 %
11.10.2019 12:28 15,2 C 15,0 C 14,4 C 85 % 1014,0 hPa 0,0 l/m 0 min 0 min 84 W/m 29,0 km/h (5 Bft) 100,00 %
11.10.2019 12:30 15,2 C 15,0 C 14,4 C 85 % 1014,0 hPa 0,0 l/m 0 min 0 min 76 W/m 25,7 km/h (4 Bft) 100,00 %
11.10.2019 12:32 15,2 C 15,0 C 14,4 C 85 % 1014,0 hPa 0,0 l/m 0 min 0 min 69 W/m 19,3 km/h (3 Bft) 100,00 %
11.10.2019 12:34 15,3 C 15,0 C 14,4 C 85 % 1014,0 hPa 0,0 l/m 0 min 0 min 67 W/m 29,0 km/h (5 Bft) 100,00 %
11.10.2019 12:36 15,3 C 15,0 C 14,4 C 85 % 1014,0 hPa 0,0 l/m 0 min 0 min 71 W/m 22,5 km/h (4 Bft) 100,00 %
11.10.2019 12:38 15,3 C 15,0 C 14,4 C 85 % 1013,9 hPa 0,0 l/m 0 min 0 min 64 W/m 22,5 km/h (4 Bft) 97,87 %
11.10.2019 12:40 15,3 C 15,0 C 14,4 C 85 % 1013,9 hPa 0,0 l/m 0 min 0 min 70 W/m 19,3 km/h (3 Bft) 100,00 %
11.10.2019 12:42 15,3 C 15,0 C 14,4 C 85 % 1014,0 hPa 0,0 l/m 0 min 0 min 61 W/m 29,0 km/h (5 Bft) 93,62 %
11.10.2019 12:44 15,3 C 15,0 C 14,4 C 85 % 1014,0 hPa 0,0 l/m 0 min 0 min 62 W/m 48,3 km/h (6 Bft) 100,00 %
11.10.2019 12:46 15,3 C 15,0 C 14,4 C 85 % 1013,8 hPa 0,0 l/m 0 min 0 min 72 W/m 41,8 km/h (6 Bft) 100,00 %
11.10.2019 12:48 15,4 C 15,0 C 14,4 C 85 % 1013,9 hPa 0,0 l/m 0 min 0 min 82 W/m 25,7 km/h (4 Bft) 100,00 %
11.10.2019 12:50 15,4 C 15,0 C 14,4 C 85 % 1013,9 hPa 0,0 l/m 0 min 0 min 76 W/m 35,4 km/h (5 Bft) 97,87 %
11.10.2019 12:52 15,4 C 15,0 C 14,4 C 84 % 1013,9 hPa 0,0 l/m 0 min 0 min 76 W/m 35,4 km/h (5 Bft) 97,83 %
11.10.2019 12:54 15,4 C 15,0 C 14,4 C 84 % 1013,9 hPa 0,0 l/m 0 min 0 min 85 W/m 29,0 km/h (5 Bft) 100,00 %
11.10.2019 12:56 15,5 C 15,0 C 14,4 C 84 % 1013,7 hPa 0,0 l/m 0 min 0 min 96 W/m 29,0 km/h (5 Bft) 100,00 %
11.10.2019 12:58 15,5 C 15,0 C 14,4 C 84 % 1013,7 hPa 0,0 l/m 0 min 0 min 95 W/m 16,1 km/h (3 Bft) 100,00 %
11.10.2019 13:00 15,5 C 15,0 C 14,4 C 84 % 1013,7 hPa 0,0 l/m 0 min 0 min 99 W/m 29,0 km/h (5 Bft) 97,87 %
11.10.2019 13:02 15,6 C 15,0 C 14,4 C 84 % 1013,6 hPa 0,0 l/m 0 min 0 min 95 W/m 22,5 km/h (4 Bft) 95,74 %
11.10.2019 13:04 15,6 C 15,0 C 14,4 C 84 % 1013,7 hPa 0,0 l/m 0 min 0 min 76 W/m 35,4 km/h (5 Bft) 97,83 %
11.10.2019 13:06 15,6 C 15,0 C 14,4 C 84 % 1013,7 hPa 0,0 l/m 0 min 0 min 70 W/m 19,3 km/h (3 Bft) 97,87 %
11.10.2019 13:08 15,6 C 15,0 C 14,4 C 85 % 1013,8 hPa 0,0 l/m 0 min 0 min 65 W/m 22,5 km/h (4 Bft) 93,62 %
11.10.2019 13:10 15,6 C 15,0 C 14,4 C 85 % 1013,9 hPa 0,0 l/m 0 min 0 min 61 W/m 25,7 km/h (4 Bft) 95,74 %
11.10.2019 13:12 15,6 C 15,0 C 14,4 C 84 % 1013,8 hPa 0,0 l/m 0 min 0 min 70 W/m 45,1 km/h (6 Bft) 97,87 %
11.10.2019 13:14 15,6 C 15,6 C 14,4 C 84 % 1013,8 hPa 0,0 l/m 0 min 0 min 94 W/m 41,8 km/h (6 Bft) 97,83 %
11.10.2019 13:16 15,6 C 15,6 C 15,0 C 84 % 1013,7 hPa 0,0 l/m 0 min 0 min 99 W/m 45,1 km/h (6 Bft) 97,87 %
11.10.2019 13:18 15,7 C 15,6 C 15,0 C 84 % 1013,7 hPa 0,0 l/m 0 min 0 min 105 W/m 35,4 km/h (5 Bft) 97,87 %
11.10.2019 13:20 15,7 C 15,6 C 15,0 C 84 % 1013,5 hPa 0,0 l/m 0 min 0 min 103 W/m 32,2 km/h (5 Bft) 97,87 %
11.10.2019 13:22 15,7 C 15,6 C 15,0 C 83 % 1013,5 hPa 0,0 l/m 0 min 0 min 100 W/m 16,1 km/h (3 Bft) 97,87 %
11.10.2019 13:24 15,7 C 15,6 C 15,0 C 83 % 1013,5 hPa 0,0 l/m 0 min 0 min 108 W/m 38,6 km/h (5 Bft) 97,87 %
11.10.2019 13:26 15,7 C 15,6 C 15,0 C 83 % 1013,6 hPa 0,0 l/m 0 min 0 min 119 W/m 29,0 km/h (5 Bft) 95,65 %
11.10.2019 13:28 15,7 C 15,6 C 15,0 C 83 % 1013,6 hPa 0,0 l/m 0 min 0 min 126 W/m 19,3 km/h (3 Bft) 97,87 %
11.10.2019 13:30 15,8 C 15,6 C 15,0 C 83 % 1013,5 hPa 0,0 l/m 0 min 0 min 128 W/m 29,0 km/h (5 Bft) 97,87 %
11.10.2019 13:32 15,8 C 15,6 C 15,0 C 83 % 1013,5 hPa 0,0 l/m 0 min 0 min 132 W/m 29,0 km/h (5 Bft) 97,87 %
11.10.2019 13:34 15,8 C 15,6 C 15,0 C 83 % 1013,6 hPa 0,0 l/m 0 min 0 min 129 W/m 41,8 km/h (6 Bft) 98,15 %
11.10.2019 13:36 15,9 C 15,6 C 15,0 C 83 % 1013,5 hPa 0,0 l/m 0 min 0 min 121 W/m 38,6 km/h (5 Bft) 98,00 %
11.10.2019 13:38 15,9 C 15,6 C 15,0 C 83 % 1013,4 hPa 0,0 l/m 0 min 0 min 118 W/m 19,3 km/h (3 Bft) 91,49 %
11.10.2019 13:40 15,9 C 15,6 C 15,0 C 83 % 1013,3 hPa 0,0 l/m 0 min 0 min 121 W/m 48,3 km/h (6 Bft) 97,83 %
11.10.2019 13:42 15,9 C 15,6 C 15,0 C 82 % 1013,4 hPa 0,0 l/m 0 min 0 min 105 W/m 38,6 km/h (5 Bft) 97,87 %
11.10.2019 13:44 15,9 C 15,6 C 15,0 C 82 % 1013,4 hPa 0,0 l/m 0 min 0 min 92 W/m 38,6 km/h (5 Bft) 97,87 %
11.10.2019 13:46 16,0 C 15,6 C 15,0 C 82 % 1013,4 hPa 0,0 l/m 0 min 0 min 89 W/m 32,2 km/h (5 Bft) 97,30 %
11.10.2019 13:48 16,0 C 15,6 C 15,0 C 82 % 1013,4 hPa 0,0 l/m 0 min 0 min 87 W/m 29,0 km/h (5 Bft) 97,87 %
11.10.2019 13:50 16,0 C 15,6 C 15,0 C 82 % 1013,4 hPa 0,0 l/m 0 min 0 min 90 W/m 25,7 km/h (4 Bft) 100,00 %
11.10.2019 13:52 16,1 C 15,6 C 15,0 C 82 % 1013,3 hPa 0,0 l/m 0 min 0 min 93 W/m 45,1 km/h (6 Bft) 100,00 %
11.10.2019 13:54 16,1 C 15,6 C 15,0 C 82 % 1013,2 hPa 0,0 l/m 0 min 0 min 92 W/m 25,7 km/h (4 Bft) 95,74 %
11.10.2019 13:56 16,1 C 15,6 C 15,0 C 82 % 1013,2 hPa 0,0 l/m 0 min 0 min 102 W/m 38,6 km/h (5 Bft) 97,87 %
11.10.2019 13:58 16,1 C 16,1 C 15,0 C 81 % 1013,2 hPa 0,0 l/m 0 min 0 min 98 W/m 16,1 km/h (3 Bft) 97,87 %
11.10.2019 14:00 16,1 C 16,1 C 15,0 C 82 % 1013,2 hPa 0,0 l/m 0 min 0 min 111 W/m 25,7 km/h (4 Bft) 97,83 %
11.10.2019 14:02 16,2 C 16,1 C 15,0 C 82 % 1013,2 hPa 0,0 l/m 0 min 0 min 126 W/m 29,0 km/h (5 Bft) 97,87 %
11.10.2019 14:04 16,2 C 16,1 C 15,6 C 82 % 1013,3 hPa 0,0 l/m 0 min 0 min 130 W/m 29,0 km/h (5 Bft) 97,87 %
11.10.2019 14:06 16,2 C 16,1 C 15,6 C 82 % 1013,3 hPa 0,0 l/m 0 min 0 min 131 W/m 25,7 km/h (4 Bft) 97,87 %
11.10.2019 14:08 16,2 C 16,1 C 15,6 C 81 % 1013,2 hPa 0,0 l/m 0 min 0 min 103 W/m 25,7 km/h (4 Bft) 97,87 %
11.10.2019 14:10 16,2 C 16,1 C 15,6 C 81 % 1013,2 hPa 0,0 l/m 0 min 0 min 96 W/m 41,8 km/h (6 Bft) 97,87 %
11.10.2019 14:12 16,3 C 16,1 C 15,6 C 81 % 1013,3 hPa 0,0 l/m 0 min 0 min 96 W/m 38,6 km/h (5 Bft) 95,74 %
11.10.2019 14:14 16,3 C 16,1 C 15,6 C 81 % 1013,1 hPa 0,0 l/m 0 min 0 min 118 W/m 38,6 km/h (5 Bft) 97,83 %
11.10.2019 14:16 16,3 C 16,1 C 15,6 C 81 % 1013,1 hPa 0,0 l/m 0 min 0 min 132 W/m 35,4 km/h (5 Bft) 96,30 %
11.10.2019 14:18 16,4 C 16,1 C 15,6 C 80 % 1013,1 hPa 0,0 l/m 0 min 0 min 122 W/m 22,5 km/h (4 Bft) 97,87 %
11.10.2019 14:20 16,4 C 16,1 C 15,6 C 80 % 1013,1 hPa 0,0 l/m 0 min 0 min 127 W/m 32,2 km/h (5 Bft) 95,74 %
11.10.2019 14:22 16,4 C 16,1 C 15,6 C 81 % 1013,0 hPa 0,0 l/m 0 min 0 min 110 W/m 22,5 km/h (4 Bft) 97,87 %
11.10.2019 14:24 16,5 C 16,1 C 15,6 C 81 % 1013,0 hPa 0,0 l/m 0 min 0 min 114 W/m 22,5 km/h (4 Bft) 95,74 %
11.10.2019 14:26 16,5 C 16,1 C 15,6 C 81 % 1012,9 hPa 0,0 l/m 0 min 0 min 130 W/m 45,1 km/h (6 Bft) 95,92 %
11.10.2019 14:28 16,5 C 16,7 C 15,6 C 81 % 1013,0 hPa 0,0 l/m 0 min 0 min 181 W/m 29,0 km/h (5 Bft) 94,59 %
11.10.2019 14:30 16,6 C 16,7 C 15,6 C 80 % 1012,9 hPa 0,0 l/m 0 min 0 min 162 W/m 35,4 km/h (5 Bft) 95,74 %
11.10.2019 14:32 16,6 C 16,7 C 16,1 C 80 % 1013,0 hPa 0,0 l/m 0 min 0 min 174 W/m 25,7 km/h (4 Bft) 93,62 %
11.10.2019 14:34 16,6 C 16,7 C 16,1 C 80 % 1012,8 hPa 0,0 l/m 0 min 0 min 206 W/m 25,7 km/h (4 Bft) 95,74 %
11.10.2019 14:36 16,7 C 16,7 C 16,1 C 80 % 1012,9 hPa 0,0 l/m 0 min 0 min 165 W/m 35,4 km/h (5 Bft) 95,65 %
11.10.2019 14:38 16,7 C 16,7 C 16,1 C 79 % 1012,9 hPa 0,0 l/m 0 min 0 min 147 W/m 41,8 km/h (6 Bft) 97,87 %
11.10.2019 14:40 16,7 C 16,7 C 16,1 C 79 % 1012,8 hPa 0,0 l/m 0 min 0 min 142 W/m 25,7 km/h (4 Bft) 95,74 %
11.10.2019 14:42 16,7 C 16,7 C 16,1 C 79 % 1012,9 hPa 0,0 l/m 0 min 0 min 128 W/m 19,3 km/h (3 Bft) 95,74 %
11.10.2019 14:44 16,8 C 16,7 C 15,6 C 79 % 1012,8 hPa 0,0 l/m 0 min 0 min 104 W/m 19,3 km/h (3 Bft) 95,74 %
11.10.2019 14:46 16,8 C 16,1 C 15,6 C 80 % 1012,8 hPa 0,0 l/m 0 min 0 min 97 W/m 22,5 km/h (4 Bft) 95,74 %
11.10.2019 14:48 16,8 C 16,1 C 15,6 C 79 % 1012,7 hPa 0,0 l/m 0 min 0 min 95 W/m 35,4 km/h (5 Bft) 95,65 %
11.10.2019 14:50 16,7 C 16,1 C 15,6 C 79 % 1012,7 hPa 0,0 l/m 0 min 0 min 98 W/m 32,2 km/h (5 Bft) 94,44 %
11.10.2019 14:52 16,7 C 16,1 C 15,6 C 79 % 1012,5 hPa 0,0 l/m 0 min 0 min 111 W/m 25,7 km/h (4 Bft) 97,87 %
11.10.2019 14:54 16,7 C 16,1 C 15,6 C 79 % 1012,6 hPa 0,0 l/m 0 min 0 min 96 W/m 25,7 km/h (4 Bft) 97,87 %
11.10.2019 14:56 16,7 C 16,1 C 15,6 C 79 % 1012,6 hPa 0,0 l/m 0 min 0 min 101 W/m 25,7 km/h (4 Bft) 97,87 %
11.10.2019 14:58 16,7 C 16,1 C 15,6 C 79 % 1012,6 hPa 0,0 l/m 0 min 0 min 111 W/m 29,0 km/h (5 Bft) 97,87 %
11.10.2019 15:00 16,7 C 16,1 C 15,6 C 79 % 1012,6 hPa 0,0 l/m 0 min 0 min 117 W/m 35,4 km/h (5 Bft) 97,87 %
11.10.2019 15:02 16,7 C 16,1 C 15,6 C 79 % 1012,6 hPa 0,0 l/m 0 min 0 min 122 W/m 35,4 km/h (5 Bft) 97,83 %
11.10.2019 15:04 16,7 C 16,1 C 15,6 C 79 % 1012,7 hPa 0,0 l/m 0 min 0 min 80 W/m 25,7 km/h (4 Bft) 97,87 %
11.10.2019 15:06 16,7 C 16,1 C 15,6 C 79 % 1012,6 hPa 0,0 l/m 0 min 0 min 78 W/m 29,0 km/h (5 Bft) 98,00 %
11.10.2019 15:08 16,7 C 16,1 C 15,6 C 79 % 1012,5 hPa 0,0 l/m 0 min 0 min 95 W/m 25,7 km/h (4 Bft) 97,87 %
11.10.2019 15:10 16,7 C 16,1 C 15,6 C 79 % 1012,5 hPa 0,0 l/m 0 min 0 min 88 W/m 35,4 km/h (5 Bft) 97,22 %
11.10.2019 15:12 16,7 C 16,1 C 15,6 C 79 % 1012,6 hPa 0,0 l/m 0 min 0 min 76 W/m 29,0 km/h (5 Bft) 95,74 %
11.10.2019 15:14 16,7 C 16,1 C 15,6 C 79 % 1012,5 hPa 0,0 l/m 0 min 0 min 67 W/m 25,7 km/h (4 Bft) 97,87 %
11.10.2019 15:16 16,7 C 15,6 C 15,0 C 79 % 1012,5 hPa 0,0 l/m 0 min 0 min 55 W/m 25,7 km/h (4 Bft) 97,87 %
11.10.2019 15:18 16,6 C 15,6 C 15,0 C 79 % 1012,5 hPa 0,0 l/m 0 min 0 min 67 W/m 38,6 km/h (5 Bft) 100,00 %
11.10.2019 15:20 16,6 C 16,1 C 15,0 C 79 % 1012,4 hPa 0,0 l/m 0 min 0 min 85 W/m 25,7 km/h (4 Bft) 100,00 %
11.10.2019 15:22 16,6 C 16,1 C 15,6 C 79 % 1012,3 hPa 0,0 l/m 0 min 0 min 87 W/m 41,8 km/h (6 Bft) 95,74 %
11.10.2019 15:24 16,6 C 16,1 C 15,6 C 79 % 1012,3 hPa 0,0 l/m 0 min 0 min 91 W/m 32,2 km/h (5 Bft) 100,00 %
11.10.2019 15:26 16,6 C 16,1 C 15,0 C 80 % 1012,3 hPa 0,0 l/m 0 min 2 min 89 W/m 25,7 km/h (4 Bft) 100,00 %
11.10.2019 15:28 16,6 C 15,6 C 15,0 C 80 % 1012,3 hPa 0,0 l/m 0 min 2 min 81 W/m 29,0 km/h (5 Bft) 100,00 %
11.10.2019 15:30 16,6 C 15,6 C 15,0 C 80 % 1012,2 hPa 0,0 l/m 0 min 0 min 81 W/m 25,7 km/h (4 Bft) 97,87 %
11.10.2019 15:32 16,6 C 16,1 C 15,0 C 80 % 1012,3 hPa 0,0 l/m 0 min 0 min 83 W/m 29,0 km/h (5 Bft) 95,74 %
11.10.2019 15:34 16,6 C 16,1 C 15,0 C 80 % 1012,3 hPa 0,0 l/m 0 min 0 min 99 W/m 29,0 km/h (5 Bft) 97,83 %
11.10.2019 15:36 16,5 C 16,1 C 15,6 C 80 % 1012,2 hPa 0,0 l/m 0 min 0 min 93 W/m 32,2 km/h (5 Bft) 95,74 %
11.10.2019 15:38 16,5 C 16,1 C 15,6 C 80 % 1012,2 hPa 0,0 l/m 0 min 0 min 80 W/m 19,3 km/h (3 Bft) 97,87 %
11.10.2019 15:40 16,5 C 16,1 C 15,6 C 80 % 1012,2 hPa 0,0 l/m 0 min 0 min 78 W/m 38,6 km/h (5 Bft) 97,87 %
11.10.2019 15:42 16,5 C 16,1 C 15,6 C 80 % 1012,1 hPa 0,0 l/m 0 min 0 min 75 W/m 38,6 km/h (5 Bft) 97,87 %
11.10.2019 15:44 16,5 C 16,1 C 15,6 C 80 % 1012,1 hPa 0,0 l/m 0 min 0 min 88 W/m 19,3 km/h (3 Bft) 95,74 %
11.10.2019 15:46 16,5 C 16,1 C 15,6 C 80 % 1012,2 hPa 0,0 l/m 0 min 0 min 81 W/m 38,6 km/h (5 Bft) 97,83 %
11.10.2019 15:48 16,5 C 16,1 C 15,6 C 80 % 1012,1 hPa 0,0 l/m 0 min 0 min 71 W/m 48,3 km/h (6 Bft) 97,87 %
11.10.2019 15:50 16,5 C 16,1 C 15,6 C 80 % 1012,1 hPa 0,0 l/m 0 min 0 min 57 W/m 32,2 km/h (5 Bft) 97,87 %
11.10.2019 15:52 16,5 C 16,1 C 15,6 C 80 % 1012,0 hPa 0,0 l/m 0 min 0 min 60 W/m 29,0 km/h (5 Bft) 97,87 %
11.10.2019 15:54 16,5 C 16,1 C 15,6 C 80 % 1012,1 hPa 0,0 l/m 0 min 0 min 63 W/m 29,0 km/h (5 Bft) 98,15 %
11.10.2019 15:56 16,5 C 16,1 C 15,6 C 80 % 1012,1 hPa 0,0 l/m 0 min 0 min 72 W/m 32,2 km/h (5 Bft) 97,87 %
11.10.2019 15:58 16,5 C 16,1 C 15,6 C 80 % 1012,1 hPa 0,0 l/m 0 min 0 min 72 W/m 29,0 km/h (5 Bft) 95,74 %
11.10.2019 16:00 16,5 C 16,1 C 15,6 C 80 % 1012,1 hPa 0,0 l/m 0 min 0 min 82 W/m 12,9 km/h (3 Bft) 97,83 %
11.10.2019 16:02 16,5 C 16,1 C 15,6 C 80 % 1012,0 hPa 0,0 l/m 0 min 0 min 72 W/m 12,9 km/h (3 Bft) 95,74 %
11.10.2019 16:04 16,5 C 16,1 C 15,6 C 80 % 1012,0 hPa 0,0 l/m 0 min 0 min 80 W/m 25,7 km/h (4 Bft) 93,62 %
11.10.2019 16:06 16,5 C 16,1 C 15,6 C 80 % 1012,0 hPa 0,0 l/m 0 min 0 min 71 W/m 48,3 km/h (6 Bft) 97,87 %
11.10.2019 16:08 16,5 C 16,1 C 15,6 C 80 % 1012,0 hPa 0,0 l/m 0 min 0 min 77 W/m 25,7 km/h (4 Bft) 97,87 %
11.10.2019 16:10 16,5 C 16,1 C 15,6 C 80 % 1012,0 hPa 0,0 l/m 0 min 0 min 72 W/m 29,0 km/h (5 Bft) 97,87 %
11.10.2019 16:12 16,5 C 15,6 C 15,6 C 80 % 1011,9 hPa 0,0 l/m 0 min 0 min 56 W/m 22,5 km/h (4 Bft) 97,83 %
11.10.2019 16:14 16,5 C 15,6 C 15,0 C 80 % 1011,9 hPa 0,0 l/m 0 min 0 min 56 W/m 32,2 km/h (5 Bft) 97,87 %
11.10.2019 16:16 16,5 C 15,6 C 15,0 C 80 % 1011,9 hPa 0,0 l/m 0 min 0 min 61 W/m 25,7 km/h (4 Bft) 97,87 %
11.10.2019 16:18 16,5 C 16,1 C 15,0 C 80 % 1011,9 hPa 0,0 l/m 0 min 0 min 65 W/m 22,5 km/h (4 Bft) 100,00 %
11.10.2019 16:20 16,4 C 16,1 C 15,0 C 80 % 1011,9 hPa 0,0 l/m 0 min 0 min 64 W/m 29,0 km/h (5 Bft) 100,00 %
11.10.2019 16:22 16,5 C 16,1 C 15,6 C 80 % 1011,9 hPa 0,0 l/m 0 min 0 min 60 W/m 19,3 km/h (3 Bft) 100,00 %
11.10.2019 16:24 16,5 C 16,1 C 15,0 C 80 % 1011,8 hPa 0,0 l/m 0 min 0 min 56 W/m 38,6 km/h (5 Bft) 100,00 %
11.10.2019 16:26 16,5 C 16,1 C 15,6 C 80 % 1011,8 hPa 0,0 l/m 0 min 0 min 59 W/m 19,3 km/h (3 Bft) 95,74 %
11.10.2019 16:28 16,5 C 15,6 C 15,0 C 80 % 1011,8 hPa 0,0 l/m 0 min 0 min 53 W/m 32,2 km/h (5 Bft) 100,00 %
11.10.2019 16:30 16,4 C 15,6 C 15,6 C 80 % 1011,9 hPa 0,0 l/m 0 min 0 min 53 W/m 29,0 km/h (5 Bft) 100,00 %
11.10.2019 16:32 16,4 C 15,6 C 15,0 C 80 % 1011,8 hPa 0,0 l/m 0 min 0 min 49 W/m 32,2 km/h (5 Bft) 97,87 %
11.10.2019 16:34 16,4 C 15,6 C 15,0 C 80 % 1011,8 hPa 0,0 l/m 0 min 0 min 51 W/m 25,7 km/h (4 Bft) 97,87 %
11.10.2019 16:36 16,5 C 15,6 C 15,0 C 80 % 1011,8 hPa 0,0 l/m 0 min 0 min 45 W/m 16,1 km/h (3 Bft) 100,00 %
11.10.2019 16:38 16,5 C 15,6 C 15,0 C 80 % 1011,7 hPa 0,0 l/m 0 min 0 min 53 W/m 25,7 km/h (4 Bft) 100,00 %
11.10.2019 16:40 16,4 C 15,6 C 15,6 C 80 % 1011,8 hPa 0,0 l/m 0 min 0 min 72 W/m 25,7 km/h (4 Bft) 97,87 %
11.10.2019 16:42 16,5 C 16,1 C 15,6 C 80 % 1011,7 hPa 0,0 l/m 0 min 0 min 78 W/m 16,1 km/h (3 Bft) 97,87 %
11.10.2019 16:44 16,5 C 16,1 C 15,6 C 80 % 1011,7 hPa 0,0 l/m 0 min 0 min 83 W/m 16,1 km/h (3 Bft) 97,87 %
11.10.2019 16:46 16,5 C 16,1 C 15,6 C 80 % 1011,6 hPa 0,0 l/m 0 min 0 min 78 W/m 25,7 km/h (4 Bft) 100,00 %
11.10.2019 16:48 16,5 C 16,1 C 15,6 C 80 % 1011,7 hPa 0,0 l/m 0 min 0 min 87 W/m 25,7 km/h (4 Bft) 100,00 %
11.10.2019 16:50 16,5 C 16,1 C 15,6 C 80 % 1011,7 hPa 0,0 l/m 0 min 0 min 102 W/m 19,3 km/h (3 Bft) 97,87 %
11.10.2019 16:52 16,5 C 16,1 C 15,6 C 81 % 1011,7 hPa 0,0 l/m 0 min 0 min 84 W/m 12,9 km/h (3 Bft) 97,87 %
11.10.2019 16:54 16,6 C 16,1 C 15,6 C 80 % 1011,8 hPa 0,0 l/m 0 min 0 min 87 W/m 22,5 km/h (4 Bft) 95,74 %
11.10.2019 16:56 16,6 C 16,1 C 15,6 C 80 % 1011,7 hPa 0,0 l/m 0 min 0 min 88 W/m 16,1 km/h (3 Bft) 97,22 %
11.10.2019 16:58 16,6 C 16,1 C 15,6 C 80 % 1011,6 hPa 0,0 l/m 0 min 0 min 87 W/m 35,4 km/h (5 Bft) 95,74 %
11.10.2019 17:00 16,6 C 16,1 C 15,6 C 80 % 1011,7 hPa 0,0 l/m 0 min 0 min 91 W/m 29,0 km/h (5 Bft) 97,87 %
11.10.2019 17:02 16,6 C 16,1 C 15,6 C 80 % 1011,6 hPa 0,0 l/m 0 min 0 min 96 W/m 22,5 km/h (4 Bft) 95,74 %
11.10.2019 17:04 16,6 C 16,1 C 15,6 C 80 % 1011,5 hPa 0,0 l/m 0 min 0 min 96 W/m 29,0 km/h (5 Bft) 97,87 %
11.10.2019 17:06 16,6 C 16,1 C 15,6 C 80 % 1011,5 hPa 0,0 l/m 0 min 0 min 98 W/m 32,2 km/h (5 Bft) 95,74 %
11.10.2019 17:08 16,6 C 16,1 C 15,6 C 80 % 1011,4 hPa 0,0 l/m 0 min 0 min 92 W/m 22,5 km/h (4 Bft) 97,83 %
11.10.2019 17:10 16,6 C 16,1 C 15,6 C 80 % 1011,4 hPa 0,0 l/m 0 min 0 min 74 W/m 32,2 km/h (5 Bft) 97,87 %
11.10.2019 17:12 16,6 C 16,1 C 15,6 C 80 % 1011,4 hPa 0,0 l/m 0 min 0 min 59 W/m 45,1 km/h (6 Bft) 97,87 %
11.10.2019 17:14 16,7 C 16,1 C 15,6 C 80 % 1011,4 hPa 0,0 l/m 0 min 0 min 64 W/m 22,5 km/h (4 Bft) 97,87 %
11.10.2019 17:16 16,7 C 16,1 C 15,6 C 80 % 1011,6 hPa 0,0 l/m 0 min 0 min 71 W/m 29,0 km/h (5 Bft) 95,74 %
11.10.2019 17:18 16,7 C 16,1 C 15,6 C 80 % 1011,5 hPa 0,0 l/m 0 min 0 min 68 W/m 19,3 km/h (3 Bft) 97,83 %
11.10.2019 17:20 16,7 C 16,1 C 15,6 C 80 % 1011,5 hPa 0,0 l/m 0 min 0 min 71 W/m 22,5 km/h (4 Bft) 95,74 %
11.10.2019 17:22 16,7 C 16,1 C 15,6 C 80 % 1011,5 hPa 0,0 l/m 0 min 0 min 64 W/m 29,0 km/h (5 Bft) 95,74 %
11.10.2019 17:24 16,7 C 16,1 C 15,6 C 80 % 1011,6 hPa 0,0 l/m 0 min 0 min 47 W/m 25,7 km/h (4 Bft) 97,87 %
11.10.2019 17:26 16,6 C 16,1 C 15,6 C 80 % 1011,5 hPa 0,0 l/m 0 min 0 min 42 W/m 25,7 km/h (4 Bft) 97,87 %
11.10.2019 17:28 16,6 C 16,1 C 15,6 C 80 % 1011,5 hPa 0,0 l/m 0 min 0 min 51 W/m 25,7 km/h (4 Bft) 97,87 %
11.10.2019 17:30 16,6 C 16,1 C 15,6 C 80 % 1011,5 hPa 0,0 l/m 0 min 0 min 51 W/m 22,5 km/h (4 Bft) 95,65 %
11.10.2019 17:32 16,6 C 16,1 C 15,6 C 80 % 1011,5 hPa 0,0 l/m 0 min 0 min 50 W/m 22,5 km/h (4 Bft) 97,87 %
11.10.2019 17:34 16,6 C 16,1 C 15,6 C 80 % 1011,5 hPa 0,0 l/m 0 min 0 min 46 W/m 22,5 km/h (4 Bft) 97,87 %
11.10.2019 17:36 16,6 C 16,1 C 15,6 C 80 % 1011,6 hPa 0,0 l/m 0 min 0 min 41 W/m 22,5 km/h (4 Bft) 95,74 %
11.10.2019 17:38 16,6 C 16,1 C 15,6 C 80 % 1011,6 hPa 0,0 l/m 0 min 0 min 32 W/m 19,3 km/h (3 Bft) 95,74 %
11.10.2019 17:40 16,6 C 16,1 C 15,6 C 80 % 1011,4 hPa 0,0 l/m 0 min 0 min 27 W/m 29,0 km/h (5 Bft) 95,74 %
11.10.2019 17:42 16,6 C 16,1 C 15,6 C 80 % 1011,4 hPa 0,0 l/m 0 min 0 min 24 W/m 25,7 km/h (4 Bft) 97,83 %
11.10.2019 17:44 16,6 C 15,6 C 15,0 C 80 % 1011,4 hPa 0,0 l/m 0 min 0 min 23 W/m 25,7 km/h (4 Bft) 97,87 %
11.10.2019 17:46 16,6 C 15,6 C 15,0 C 80 % 1011,3 hPa 0,0 l/m 0 min 0 min 23 W/m 25,7 km/h (4 Bft) 98,15 %
11.10.2019 17:48 16,6 C 15,6 C 15,0 C 80 % 1011,2 hPa 0,0 l/m 0 min 0 min 20 W/m 32,2 km/h (5 Bft) 97,87 %
11.10.2019 17:50 16,6 C 15,6 C 15,0 C 80 % 1011,3 hPa 0,0 l/m 0 min 0 min 19 W/m 22,5 km/h (4 Bft) 98,00 %
11.10.2019 17:52 16,6 C 15,6 C 15,0 C 80 % 1011,3 hPa 0,0 l/m 0 min 0 min 20 W/m 25,7 km/h (4 Bft) 97,87 %
11.10.2019 17:54 16,6 C 15,6 C 15,0 C 80 % 1011,3 hPa 0,0 l/m 0 min 0 min 18 W/m 29,0 km/h (5 Bft) 97,87 %
11.10.2019 17:56 16,6 C 15,6 C 15,0 C 80 % 1011,3 hPa 0,0 l/m 0 min 0 min 20 W/m 19,3 km/h (3 Bft) 97,83 %
11.10.2019 17:58 16,6 C 15,6 C 15,0 C 80 % 1011,2 hPa 0,0 l/m 0 min 0 min 21 W/m 29,0 km/h (5 Bft) 97,87 %
11.10.2019 18:00 16,6 C 15,6 C 15,0 C 80 % 1011,3 hPa 0,0 l/m 0 min 0 min 17 W/m 32,2 km/h (5 Bft) 97,87 %
11.10.2019 18:02 16,6 C 15,6 C 15,0 C 80 % 1011,2 hPa 0,0 l/m 0 min 0 min 14 W/m 32,2 km/h (5 Bft) 97,87 %
11.10.2019 18:04 16,6 C 15,6 C 15,0 C 80 % 1011,3 hPa 0,0 l/m 0 min 0 min 14 W/m 41,8 km/h (6 Bft) 97,87 %
11.10.2019 18:08 16,6 C 15,6 C 15,0 C 80 % 1011,4 hPa 0,0 l/m 0 min 0 min 14 W/m 35,4 km/h (5 Bft) 96,77 %
11.10.2019 18:10 16,6 C 15,6 C 15,0 C 80 % 1011,4 hPa 0,0 l/m 0 min 0 min 18 W/m 29,0 km/h (5 Bft) 93,62 %
11.10.2019 18:12 16,6 C 15,6 C 15,0 C 80 % 1011,4 hPa 0,0 l/m 0 min 0 min 20 W/m 29,0 km/h (5 Bft) 95,74 %
11.10.2019 18:14 16,6 C 15,6 C 15,0 C 80 % 1011,4 hPa 0,0 l/m 0 min 0 min 21 W/m 22,5 km/h (4 Bft) 97,30 %
11.10.2019 18:16 16,6 C 15,6 C 15,0 C 80 % 1011,4 hPa 0,0 l/m 0 min 0 min 19 W/m 38,6 km/h (5 Bft) 95,74 %
11.10.2019 18:18 16,6 C 15,6 C 15,0 C 80 % 1011,3 hPa 0,0 l/m 0 min 0 min 18 W/m 29,0 km/h (5 Bft) 95,65 %
11.10.2019 18:20 16,6 C 15,6 C 15,0 C 80 % 1011,4 hPa 0,0 l/m 0 min 0 min 16 W/m 29,0 km/h (5 Bft) 91,49 %
11.10.2019 18:22 16,6 C 15,6 C 15,0 C 80 % 1011,3 hPa 0,0 l/m 0 min 0 min 12 W/m 29,0 km/h (5 Bft) 91,49 %
11.10.2019 18:24 16,6 C 15,6 C 15,0 C 80 % 1011,3 hPa 0,0 l/m 0 min 0 min 11 W/m 25,7 km/h (4 Bft) 93,62 %
11.10.2019 18:26 16,6 C 15,6 C 15,0 C 80 % 1011,2 hPa 0,0 l/m 0 min 0 min 9 W/m 32,2 km/h (5 Bft) 96,30 %
11.10.2019 18:28 16,6 C 15,6 C 15,0 C 80 % 1011,2 hPa 0,0 l/m 0 min 0 min 9 W/m 32,2 km/h (5 Bft) 95,74 %
11.10.2019 18:30 16,5 C 15,6 C 15,0 C 80 % 1011,2 hPa 0,0 l/m 0 min 0 min 7 W/m 25,7 km/h (4 Bft) 95,74 %
11.10.2019 18:32 16,6 C 15,6 C 15,0 C 80 % 1011,1 hPa 0,0 l/m 0 min 0 min 6 W/m 19,3 km/h (3 Bft) 97,83 %
11.10.2019 18:34 16,5 C 15,6 C 15,0 C 80 % 1011,1 hPa 0,0 l/m 0 min 0 min 5 W/m 29,0 km/h (5 Bft) 95,74 %
11.10.2019 18:36 16,5 C 15,6 C 15,0 C 80 % 1011,1 hPa 0,0 l/m 0 min 0 min 5 W/m 29,0 km/h (5 Bft) 95,74 %
11.10.2019 18:38 16,5 C 15,6 C 15,0 C 80 % 1011,1 hPa 0,0 l/m 0 min 0 min 1 W/m 22,5 km/h (4 Bft) 97,87 %
11.10.2019 18:40 16,5 C 15,6 C 15,0 C 80 % 1011,3 hPa 0,0 l/m 0 min 0 min 0 W/m 25,7 km/h (4 Bft) 97,87 %
11.10.2019 18:42 16,5 C 15,6 C 15,0 C 81 % 1011,3 hPa 0,0 l/m 0 min 0 min 0 W/m 22,5 km/h (4 Bft) 97,87 %
11.10.2019 18:44 16,4 C 15,6 C 15,0 C 81 % 1011,3 hPa 0,0 l/m 0 min 0 min 0 W/m 25,7 km/h (4 Bft) 93,48 %
11.10.2019 18:46 16,4 C 15,6 C 15,0 C 80 % 1011,4 hPa 0,0 l/m 0 min 0 min 0 W/m 25,7 km/h (4 Bft) 97,87 %
11.10.2019 18:48 16,4 C 15,6 C 15,0 C 80 % 1011,4 hPa 0,0 l/m 0 min 0 min 0 W/m 25,7 km/h (4 Bft) 97,87 %
11.10.2019 18:50 16,4 C 15,6 C 15,0 C 80 % 1011,4 hPa 0,0 l/m 0 min 0 min 0 W/m 29,0 km/h (5 Bft) 95,74 %
11.10.2019 18:52 16,4 C 15,6 C 15,0 C 80 % 1011,4 hPa 0,0 l/m 0 min 0 min 0 W/m 29,0 km/h (5 Bft) 100,00 %
11.10.2019 18:54 16,4 C 15,6 C 15,0 C 80 % 1011,5 hPa 0,0 l/m 0 min 0 min 0 W/m 19,3 km/h (3 Bft) 100,00 %
11.10.2019 18:56 16,4 C 15,6 C 15,0 C 80 % 1011,4 hPa 0,0 l/m 0 min 0 min 0 W/m 12,9 km/h (3 Bft) 100,00 %
11.10.2019 18:58 16,4 C 15,6 C 15,0 C 80 % 1011,4 hPa 0,0 l/m 0 min 0 min 0 W/m 22,5 km/h (4 Bft) 100,00 %
11.10.2019 19:00 16,4 C 15,6 C 15,0 C 80 % 1011,4 hPa 0,0 l/m 0 min 0 min 0 W/m 22,5 km/h (4 Bft) 98,00 %
11.10.2019 19:02 16,4 C 15,6 C 15,0 C 80 % 1011,4 hPa 0,0 l/m 0 min 0 min 0 W/m 22,5 km/h (4 Bft) 97,87 %
11.10.2019 19:04 16,4 C 15,6 C 15,0 C 80 % 1011,4 hPa 0,0 l/m 0 min 0 min 0 W/m 29,0 km/h (5 Bft) 100,00 %
11.10.2019 19:06 16,4 C 15,6 C 15,0 C 80 % 1011,4 hPa 0,0 l/m 0 min 0 min 0 W/m 22,5 km/h (4 Bft) 97,22 %
11.10.2019 19:08 16,4 C 15,6 C 15,0 C 81 % 1011,4 hPa 0,0 l/m 0 min 0 min 0 W/m 22,5 km/h (4 Bft) 97,87 %
11.10.2019 19:10 16,4 C 15,6 C 15,0 C 81 % 1011,5 hPa 0,0 l/m 0 min 0 min 0 W/m 25,7 km/h (4 Bft) 100,00 %
11.10.2019 19:12 16,4 C 15,6 C 15,0 C 81 % 1011,4 hPa 0,0 l/m 0 min 0 min 0 W/m 19,3 km/h (3 Bft) 100,00 %
11.10.2019 19:14 16,4 C 15,6 C 15,0 C 81 % 1011,4 hPa 0,0 l/m 0 min 0 min 0 W/m 25,7 km/h (4 Bft) 95,74 %
11.10.2019 19:16 16,4 C 15,6 C 15,0 C 81 % 1011,3 hPa 0,0 l/m 0 min 0 min 0 W/m 25,7 km/h (4 Bft) 100,00 %
11.10.2019 19:18 16,4 C 15,6 C 15,0 C 81 % 1011,2 hPa 0,0 l/m 0 min 0 min 0 W/m 25,7 km/h (4 Bft) 97,87 %
11.10.2019 19:20 16,4 C 15,6 C 15,0 C 80 % 1011,3 hPa 0,0 l/m 0 min 0 min 0 W/m 35,4 km/h (5 Bft) 100,00 %
11.10.2019 19:22 16,4 C 15,6 C 15,0 C 80 % 1011,3 hPa 0,0 l/m 0 min 0 min 0 W/m 19,3 km/h (3 Bft) 100,00 %
11.10.2019 19:24 16,4 C 15,6 C 15,0 C 80 % 1011,2 hPa 0,0 l/m 0 min 0 min 0 W/m 32,2 km/h (5 Bft) 100,00 %
11.10.2019 19:26 16,4 C 15,6 C 15,0 C 80 % 1011,1 hPa 0,0 l/m 0 min 0 min 0 W/m 35,4 km/h (5 Bft) 100,00 %
11.10.2019 19:28 16,4 C 15,6 C 15,0 C 80 % 1011,1 hPa 0,0 l/m 0 min 0 min 0 W/m 29,0 km/h (5 Bft) 98,15 %
11.10.2019 19:30 16,4 C 15,6 C 15,0 C 80 % 1011,1 hPa 0,0 l/m 0 min 0 min 0 W/m 35,4 km/h (5 Bft) 97,83 %
11.10.2019 19:32 16,4 C 15,6 C 15,0 C 80 % 1011,0 hPa 0,0 l/m 0 min 0 min 0 W/m 32,2 km/h (5 Bft) 97,87 %
11.10.2019 19:34 16,4 C 15,6 C 15,0 C 80 % 1011,1 hPa 0,0 l/m 0 min 0 min 0 W/m 32,2 km/h (5 Bft) 100,00 %
11.10.2019 19:36 16,4 C 15,6 C 15,0 C 80 % 1011,1 hPa 0,0 l/m 0 min 0 min 0 W/m 25,7 km/h (4 Bft) 97,14 %
11.10.2019 19:38 16,4 C 15,6 C 15,0 C 80 % 1011,2 hPa 0,0 l/m 0 min 0 min 0 W/m 19,3 km/h (3 Bft) 98,28 %
11.10.2019 19:40 16,4 C 15,6 C 15,0 C 80 % 1011,2 hPa 0,0 l/m 0 min 0 min 0 W/m 22,5 km/h (4 Bft) 94,59 %
11.10.2019 19:42 16,4 C 15,6 C 15,0 C 80 % 1011,2 hPa 0,0 l/m 0 min 0 min 0 W/m 41,8 km/h (6 Bft) 97,87 %
11.10.2019 19:44 16,4 C 15,6 C 15,0 C 80 % 1011,2 hPa 0,0 l/m 0 min 0 min 0 W/m 19,3 km/h (3 Bft) 97,87 %
11.10.2019 19:46 16,4 C 15,6 C 15,0 C 80 % 1011,2 hPa 0,0 l/m 0 min 0 min 0 W/m 29,0 km/h (5 Bft) 97,87 %
11.10.2019 19:48 16,4 C 15,6 C 15,0 C 80 % 1011,2 hPa 0,0 l/m 0 min 0 min 0 W/m 29,0 km/h (5 Bft) 95,74 %
11.10.2019 19:50 16,4 C 15,6 C 15,0 C 80 % 1011,2 hPa 0,0 l/m 0 min 0 min 0 W/m 16,1 km/h (3 Bft) 97,83 %
11.10.2019 19:52 16,4 C 15,6 C 15,0 C 80 % 1011,3 hPa 0,0 l/m 0 min 0 min 0 W/m 29,0 km/h (5 Bft) 97,87 %
11.10.2019 19:54 16,4 C 15,6 C 15,0 C 80 % 1011,2 hPa 0,0 l/m 0 min 0 min 0 W/m 25,7 km/h (4 Bft) 98,11 %
11.10.2019 19:56 16,5 C 15,6 C 15,0 C 80 % 1011,2 hPa 0,0 l/m 0 min 0 min 0 W/m 22,5 km/h (4 Bft) 95,74 %
11.10.2019 19:58 16,5 C 15,6 C 15,0 C 80 % 1011,1 hPa 0,0 l/m 0 min 0 min 0 W/m 29,0 km/h (5 Bft) 98,00 %
11.10.2019 20:00 16,5 C 15,6 C 15,0 C 80 % 1011,2 hPa 0,0 l/m 0 min 0 min 0 W/m 19,3 km/h (3 Bft) 97,87 %
11.10.2019 20:02 16,5 C 15,6 C 15,0 C 80 % 1011,2 hPa 0,0 l/m 0 min 0 min 0 W/m 16,1 km/h (3 Bft) 97,30 %
11.10.2019 20:04 16,5 C 15,6 C 15,0 C 80 % 1011,2 hPa 0,0 l/m 0 min 0 min 0 W/m 22,5 km/h (4 Bft) 95,74 %
11.10.2019 20:06 16,5 C 15,6 C 15,0 C 80 % 1011,1 hPa 0,0 l/m 0 min 0 min 0 W/m 16,1 km/h (3 Bft) 96,30 %
11.10.2019 20:08 16,5 C 15,6 C 15,0 C 80 % 1011,1 hPa 0,0 l/m 0 min 0 min 0 W/m 29,0 km/h (5 Bft) 97,87 %
11.10.2019 20:10 16,5 C 15,6 C 15,0 C 80 % 1011,1 hPa 0,0 l/m 0 min 0 min 0 W/m 22,5 km/h (4 Bft) 98,00 %
11.10.2019 20:12 16,5 C 15,6 C 15,0 C 80 % 1011,1 hPa 0,0 l/m 0 min 0 min 0 W/m 22,5 km/h (4 Bft) 97,30 %
11.10.2019 20:14 16,5 C 15,6 C 15,0 C 80 % 1011,0 hPa 0,0 l/m 0 min 0 min 0 W/m 22,5 km/h (4 Bft) 97,83 %
11.10.2019 20:16 16,5 C 15,6 C 15,0 C 80 % 1011,0 hPa 0,0 l/m 0 min 0 min 0 W/m 29,0 km/h (5 Bft) 97,87 %
11.10.2019 20:18 16,6 C 15,6 C 15,0 C 80 % 1011,0 hPa 0,0 l/m 0 min 0 min 0 W/m 12,9 km/h (3 Bft) 97,87 %
11.10.2019 20:20 16,5 C 15,6 C 15,0 C 80 % 1010,9 hPa 0,0 l/m 0 min 0 min 0 W/m 19,3 km/h (3 Bft) 96,30 %
11.10.2019 20:22 16,6 C 15,6 C 15,0 C 80 % 1010,9 hPa 0,0 l/m 0 min 0 min 0 W/m 22,5 km/h (4 Bft) 98,00 %
11.10.2019 20:24 16,5 C 15,6 C 15,0 C 80 % 1010,9 hPa 0,0 l/m 0 min 0 min 0 W/m 16,1 km/h (3 Bft) 97,30 %
11.10.2019 20:26 16,6 C 15,6 C 15,0 C 80 % 1010,9 hPa 0,0 l/m 0 min 0 min 0 W/m 35,4 km/h (5 Bft) 97,83 %
11.10.2019 20:28 16,6 C 15,6 C 15,0 C 80 % 1010,9 hPa 0,0 l/m 0 min 0 min 0 W/m 32,2 km/h (5 Bft) 100,00 %
11.10.2019 20:30 16,6 C 15,6 C 15,0 C 80 % 1010,9 hPa 0,0 l/m 0 min 0 min 0 W/m 25,7 km/h (4 Bft) 100,00 %
11.10.2019 20:32 16,6 C 15,6 C 15,0 C 80 % 1010,9 hPa 0,0 l/m 0 min 0 min 0 W/m 29,0 km/h (5 Bft) 100,00 %
11.10.2019 20:34 16,6 C 15,6 C 15,0 C 80 % 1010,8 hPa 0,0 l/m 0 min 0 min 0 W/m 19,3 km/h (3 Bft) 100,00 %
11.10.2019 20:36 16,6 C 15,6 C 15,0 C 80 % 1010,8 hPa 0,0 l/m 0 min 0 min 0 W/m 22,5 km/h (4 Bft) 100,00 %
11.10.2019 20:38 16,6 C 15,6 C 15,0 C 80 % 1010,8 hPa 0,0 l/m 0 min 0 min 0 W/m 25,7 km/h (4 Bft) 100,00 %
11.10.2019 20:40 16,6 C 15,6 C 15,0 C 80 % 1010,8 hPa 0,0 l/m 0 min 0 min 0 W/m 22,5 km/h (4 Bft) 100,00 %
11.10.2019 20:42 16,6 C 15,6 C 15,0 C 80 % 1010,8 hPa 0,0 l/m 0 min 0 min 0 W/m 19,3 km/h (3 Bft) 97,87 %
11.10.2019 20:44 16,6 C 15,6 C 15,6 C 80 % 1010,8 hPa 0,0 l/m 0 min 0 min 0 W/m 35,4 km/h (5 Bft) 97,30 %
11.10.2019 20:46 16,6 C 15,6 C 15,0 C 80 % 1010,7 hPa 0,0 l/m 0 min 0 min 0 W/m 19,3 km/h (3 Bft) 98,00 %
11.10.2019 20:48 16,6 C 16,1 C 15,6 C 80 % 1010,8 hPa 0,0 l/m 0 min 0 min 0 W/m 32,2 km/h (5 Bft) 97,83 %
11.10.2019 20:50 16,6 C 16,1 C 15,6 C 80 % 1010,7 hPa 0,0 l/m 0 min 0 min 0 W/m 29,0 km/h (5 Bft) 97,87 %
11.10.2019 20:52 16,7 C 15,6 C 15,0 C 81 % 1010,8 hPa 0,0 l/m 0 min 0 min 0 W/m 19,3 km/h (3 Bft) 94,44 %
11.10.2019 20:54 16,7 C 15,6 C 15,0 C 81 % 1010,7 hPa 0,0 l/m 0 min 0 min 0 W/m 22,5 km/h (4 Bft) 100,00 %
11.10.2019 20:56 16,7 C 15,6 C 15,6 C 81 % 1010,6 hPa 0,0 l/m 0 min 0 min 0 W/m 25,7 km/h (4 Bft) 95,92 %
11.10.2019 20:58 16,7 C 16,1 C 15,6 C 81 % 1010,7 hPa 0,0 l/m 0 min 0 min 0 W/m 25,7 km/h (4 Bft) 93,62 %
11.10.2019 21:00 16,7 C 16,1 C 15,6 C 81 % 1010,7 hPa 0,0 l/m 0 min 0 min 0 W/m 35,4 km/h (5 Bft) 96,30 %
11.10.2019 21:02 16,7 C 16,1 C 15,6 C 81 % 1010,6 hPa 0,0 l/m 0 min 0 min 0 W/m 38,6 km/h (5 Bft) 94,74 %
11.10.2019 21:04 16,7 C 16,1 C 15,6 C 81 % 1010,7 hPa 0,0 l/m 0 min 0 min 0 W/m 41,8 km/h (6 Bft) 95,83 %
11.10.2019 21:06 16,7 C 16,1 C 15,6 C 81 % 1010,6 hPa 0,0 l/m 0 min 0 min 0 W/m 35,4 km/h (5 Bft) 93,62 %
11.10.2019 21:08 16,7 C 16,1 C 15,6 C 81 % 1010,6 hPa 0,0 l/m 0 min 0 min 0 W/m 25,7 km/h (4 Bft) 95,74 %
11.10.2019 21:10 16,8 C 16,1 C 15,6 C 81 % 1010,6 hPa 0,0 l/m 0 min 0 min 0 W/m 45,1 km/h (6 Bft) 94,44 %
11.10.2019 21:12 16,8 C 16,1 C 15,6 C 81 % 1010,6 hPa 0,0 l/m 0 min 0 min 0 W/m 29,0 km/h (5 Bft) 94,74 %
11.10.2019 21:14 16,8 C 16,1 C 15,6 C 81 % 1010,6 hPa 0,0 l/m 0 min 0 min 0 W/m 29,0 km/h (5 Bft) 93,75 %
11.10.2019 21:16 16,8 C 16,1 C 15,6 C 81 % 1010,6 hPa 0,0 l/m 0 min 0 min 0 W/m 32,2 km/h (5 Bft) 95,74 %
11.10.2019 21:18 16,8 C 16,1 C 15,6 C 81 % 1010,6 hPa 0,0 l/m 0 min 0 min 0 W/m 35,4 km/h (5 Bft) 95,74 %
11.10.2019 21:20 16,8 C 16,1 C 15,6 C 81 % 1010,6 hPa 0,0 l/m 0 min 0 min 0 W/m 29,0 km/h (5 Bft) 94,44 %
11.10.2019 21:22 16,8 C 16,1 C 15,6 C 81 % 1010,6 hPa 0,0 l/m 0 min 0 min 0 W/m 38,6 km/h (5 Bft) 93,62 %
11.10.2019 21:24 16,8 C 16,1 C 15,6 C 81 % 1010,5 hPa 0,0 l/m 0 min 0 min 0 W/m 22,5 km/h (4 Bft) 95,74 %
11.10.2019 21:26 16,8 C 16,1 C 15,6 C 81 % 1010,5 hPa 0,0 l/m 0 min 0 min 0 W/m 41,8 km/h (6 Bft) 94,74 %
11.10.2019 21:28 16,8 C 16,1 C 15,6 C 81 % 1010,5 hPa 0,0 l/m 0 min 0 min 0 W/m 32,2 km/h (5 Bft) 97,92 %
11.10.2019 21:30 16,9 C 16,1 C 15,6 C 80 % 1010,5 hPa 0,0 l/m 0 min 0 min 0 W/m 35,4 km/h (5 Bft) 97,87 %
11.10.2019 21:32 16,9 C 16,1 C 15,6 C 80 % 1010,5 hPa 0,0 l/m 0 min 0 min 0 W/m 29,0 km/h (5 Bft) 97,87 %
11.10.2019 21:34 16,9 C 16,1 C 15,6 C 80 % 1010,5 hPa 0,0 l/m 0 min 0 min 0 W/m 25,7 km/h (4 Bft) 98,15 %
11.10.2019 21:36 16,9 C 16,1 C 15,6 C 80 % 1010,6 hPa 0,0 l/m 0 min 0 min 0 W/m 35,4 km/h (5 Bft) 97,83 %
11.10.2019 21:38 16,9 C 16,1 C 15,6 C 80 % 1010,6 hPa 0,0 l/m 0 min 0 min 0 W/m 22,5 km/h (4 Bft) 97,44 %
11.10.2019 21:40 16,9 C 16,1 C 15,6 C 80 % 1010,6 hPa 0,0 l/m 0 min 0 min 0 W/m 25,7 km/h (4 Bft) 93,75 %
11.10.2019 21:42 16,9 C 16,1 C 15,6 C 80 % 1010,5 hPa 0,0 l/m 0 min 0 min 0 W/m 25,7 km/h (4 Bft) 97,87 %
11.10.2019 21:44 16,9 C 16,1 C 15,6 C 80 % 1010,5 hPa 0,0 l/m 0 min 0 min 0 W/m 32,2 km/h (5 Bft) 96,30 %
11.10.2019 21:46 17,0 C 16,1 C 15,6 C 81 % 1010,6 hPa 0,0 l/m 0 min 0 min 0 W/m 25,7 km/h (4 Bft) 100,00 %
11.10.2019 21:48 17,0 C 16,1 C 15,6 C 81 % 1010,6 hPa 0,0 l/m 0 min 0 min 0 W/m 25,7 km/h (4 Bft) 95,83 %
11.10.2019 21:50 17,0 C 16,1 C 15,6 C 80 % 1010,5 hPa 0,0 l/m 0 min 0 min 0 W/m 32,2 km/h (5 Bft) 95,74 %
11.10.2019 21:52 17,0 C 16,1 C 15,6 C 81 % 1010,5 hPa 0,0 l/m 0 min 0 min 0 W/m 29,0 km/h (5 Bft) 100,00 %
11.10.2019 21:54 17,0 C 16,1 C 15,6 C 81 % 1010,6 hPa 0,0 l/m 0 min 0 min 0 W/m 29,0 km/h (5 Bft) 100,00 %
11.10.2019 21:56 16,9 C 16,1 C 15,6 C 81 % 1010,5 hPa 0,0 l/m 0 min 0 min 0 W/m 22,5 km/h (4 Bft) 100,00 %
11.10.2019 21:58 16,9 C 16,1 C 15,6 C 81 % 1010,6 hPa 0,0 l/m 0 min 0 min 0 W/m 35,4 km/h (5 Bft) 97,92 %
11.10.2019 22:00 17,0 C 16,1 C 15,6 C 81 % 1010,6 hPa 0,0 l/m 0 min 0 min 0 W/m 38,6 km/h (5 Bft) 100,00 %
11.10.2019 22:02 16,9 C 16,1 C 15,6 C 81 % 1010,6 hPa 0,0 l/m 0 min 0 min 0 W/m 38,6 km/h (5 Bft) 100,00 %
11.10.2019 22:04 16,9 C 16,1 C 15,6 C 81 % 1010,6 hPa 0,0 l/m 0 min 0 min 0 W/m 32,2 km/h (5 Bft) 100,00 %
11.10.2019 22:06 16,9 C 16,1 C 15,6 C 81 % 1010,5 hPa 0,0 l/m 0 min 0 min 0 W/m 22,5 km/h (4 Bft) 100,00 %
11.10.2019 22:08 16,9 C 16,1 C 15,6 C 81 % 1010,5 hPa 0,0 l/m 0 min 0 min 0 W/m 25,7 km/h (4 Bft) 97,96 %
11.10.2019 22:10 16,9 C 16,1 C 15,6 C 81 % 1010,5 hPa 0,0 l/m 0 min 0 min 0 W/m 29,0 km/h (5 Bft) 100,00 %
11.10.2019 22:12 16,9 C 16,1 C 15,6 C 81 % 1010,5 hPa 0,0 l/m 0 min 0 min 0 W/m 22,5 km/h (4 Bft) 98,15 %
11.10.2019 22:14 16,9 C 16,1 C 15,6 C 81 % 1010,5 hPa 0,0 l/m 0 min 0 min 0 W/m 19,3 km/h (3 Bft) 97,37 %
11.10.2019 22:16 16,9 C 16,1 C 15,6 C 81 % 1010,6 hPa 0,0 l/m 0 min 0 min 0 W/m 35,4 km/h (5 Bft) 97,87 %
11.10.2019 22:18 16,9 C 16,1 C 15,6 C 81 % 1010,6 hPa 0,0 l/m 0 min 0 min 0 W/m 32,2 km/h (5 Bft) 100,00 %
11.10.2019 22:20 16,9 C 16,1 C 15,6 C 81 % 1010,5 hPa 0,0 l/m 0 min 0 min 0 W/m 32,2 km/h (5 Bft) 100,00 %
11.10.2019 22:22 16,9 C 16,1 C 15,6 C 81 % 1010,6 hPa 0,0 l/m 0 min 0 min 0 W/m 25,7 km/h (4 Bft) 97,92 %
11.10.2019 22:24 16,9 C 16,1 C 15,6 C 81 % 1010,6 hPa 0,0 l/m 0 min 0 min 0 W/m 22,5 km/h (4 Bft) 97,87 %
11.10.2019 22:26 16,9 C 16,1 C 15,6 C 81 % 1010,6 hPa 0,0 l/m 0 min 0 min 0 W/m 29,0 km/h (5 Bft) 96,30 %
11.10.2019 22:28 16,9 C 16,1 C 15,6 C 81 % 1010,6 hPa 0,0 l/m 0 min 0 min 0 W/m 38,6 km/h (5 Bft) 100,00 %
11.10.2019 22:30 17,0 C 16,1 C 15,6 C 81 % 1010,5 hPa 0,0 l/m 0 min 0 min 0 W/m 29,0 km/h (5 Bft) 97,96 %
11.10.2019 22:32 17,0 C 16,1 C 15,6 C 81 % 1010,5 hPa 0,0 l/m 0 min 0 min 0 W/m 32,2 km/h (5 Bft) 95,65 %
11.10.2019 22:34 17,0 C 16,1 C 15,6 C 81 % 1010,5 hPa 0,0 l/m 0 min 0 min 0 W/m 25,7 km/h (4 Bft) 97,87 %
11.10.2019 22:36 17,0 C 16,1 C 15,6 C 81 % 1010,5 hPa 0,0 l/m 0 min 0 min 0 W/m 16,1 km/h (3 Bft) 97,87 %
11.10.2019 22:38 17,1 C 16,1 C 15,6 C 81 % 1010,5 hPa 0,0 l/m 0 min 0 min 0 W/m 19,3 km/h (3 Bft) 97,87 %
11.10.2019 22:40 17,1 C 16,1 C 15,6 C 80 % 1010,5 hPa 0,0 l/m 0 min 0 min 0 W/m 25,7 km/h (4 Bft) 97,87 %
11.10.2019 22:42 17,1 C 16,1 C 15,6 C 80 % 1010,5 hPa 0,0 l/m 0 min 0 min 0 W/m 25,7 km/h (4 Bft) 98,15 %
11.10.2019 22:44 17,1 C 16,1 C 15,6 C 80 % 1010,5 hPa 0,0 l/m 0 min 0 min 0 W/m 22,5 km/h (4 Bft) 97,37 %
11.10.2019 22:46 17,1 C 16,1 C 15,6 C 80 % 1010,5 hPa 0,0 l/m 0 min 0 min 0 W/m 22,5 km/h (4 Bft) 97,87 %
11.10.2019 22:48 17,1 C 16,1 C 15,6 C 80 % 1010,5 hPa 0,0 l/m 0 min 0 min 0 W/m 25,7 km/h (4 Bft) 97,87 %
11.10.2019 22:50 17,1 C 16,1 C 15,6 C 80 % 1010,5 hPa 0,0 l/m 0 min 0 min 0 W/m 19,3 km/h (3 Bft) 97,92 %
11.10.2019 22:52 17,1 C 16,1 C 15,6 C 80 % 1010,5 hPa 0,0 l/m 0 min 0 min 0 W/m 22,5 km/h (4 Bft) 97,87 %
11.10.2019 22:54 17,1 C 16,1 C 16,1 C 80 % 1010,4 hPa 0,0 l/m 0 min 0 min 0 W/m 29,0 km/h (5 Bft) 95,74 %
11.10.2019 22:56 17,1 C 16,1 C 15,6 C 80 % 1010,4 hPa 0,0 l/m 0 min 0 min 0 W/m 19,3 km/h (3 Bft) 97,83 %
11.10.2019 22:58 17,1 C 16,1 C 15,6 C 80 % 1010,4 hPa 0,0 l/m 0 min 0 min 0 W/m 16,1 km/h (3 Bft) 97,87 %
11.10.2019 23:00 17,1 C 16,1 C 15,6 C 80 % 1010,4 hPa 0,0 l/m 0 min 0 min 0 W/m 22,5 km/h (4 Bft) 94,44 %
11.10.2019 23:02 17,1 C 16,1 C 15,6 C 80 % 1010,5 hPa 0,0 l/m 0 min 0 min 0 W/m 25,7 km/h (4 Bft) 100,00 %
11.10.2019 23:04 17,1 C 16,1 C 15,6 C 80 % 1010,5 hPa 0,0 l/m 0 min 0 min 0 W/m 25,7 km/h (4 Bft) 95,74 %
11.10.2019 23:06 17,1 C 16,1 C 15,6 C 80 % 1010,5 hPa 0,0 l/m 0 min 0 min 0 W/m 29,0 km/h (5 Bft) 97,96 %
11.10.2019 23:08 17,1 C 16,7 C 16,1 C 80 % 1010,5 hPa 0,0 l/m 0 min 0 min 0 W/m 48,3 km/h (6 Bft) 97,83 %
11.10.2019 23:10 17,1 C 16,7 C 16,1 C 80 % 1010,5 hPa 0,0 l/m 0 min 0 min 0 W/m 25,7 km/h (4 Bft) 97,87 %
11.10.2019 23:12 17,1 C 16,1 C 16,1 C 80 % 1010,5 hPa 0,0 l/m 0 min 0 min 0 W/m 25,7 km/h (4 Bft) 97,87 %
11.10.2019 23:14 17,2 C 16,1 C 16,1 C 80 % 1010,5 hPa 0,0 l/m 0 min 0 min 0 W/m 25,7 km/h (4 Bft) 98,15 %
11.10.2019 23:16 17,2 C 16,1 C 16,1 C 80 % 1010,5 hPa 0,0 l/m 0 min 0 min 0 W/m 25,7 km/h (4 Bft) 100,00 %
11.10.2019 23:18 17,2 C 16,1 C 16,1 C 80 % 1010,5 hPa 0,0 l/m 0 min 0 min 0 W/m 29,0 km/h (5 Bft) 95,74 %
11.10.2019 23:20 17,2 C 16,1 C 15,6 C 80 % 1010,5 hPa 0,0 l/m 0 min 0 min 0 W/m 16,1 km/h (3 Bft) 97,92 %
11.10.2019 23:22 17,2 C 16,1 C 15,6 C 80 % 1010,5 hPa 0,0 l/m 0 min 0 min 0 W/m 16,1 km/h (3 Bft) 97,87 %
11.10.2019 23:24 17,2 C 16,1 C 16,1 C 80 % 1010,4 hPa 0,0 l/m 0 min 0 min 0 W/m 22,5 km/h (4 Bft) 97,87 %
11.10.2019 23:26 17,2 C 16,1 C 16,1 C 80 % 1010,6 hPa 0,0 l/m 0 min 0 min 0 W/m 29,0 km/h (5 Bft) 98,15 %
11.10.2019 23:28 17,2 C 16,1 C 15,6 C 80 % 1010,5 hPa 0,0 l/m 0 min 0 min 0 W/m 16,1 km/h (3 Bft) 93,62 %
11.10.2019 23:30 17,2 C 16,1 C 15,6 C 80 % 1010,4 hPa 0,0 l/m 0 min 0 min 0 W/m 16,1 km/h (3 Bft) 100,00 %
11.10.2019 23:32 17,2 C 16,1 C 15,6 C 80 % 1010,5 hPa 0,0 l/m 0 min 0 min 0 W/m 16,1 km/h (3 Bft) 95,83 %
11.10.2019 23:34 17,2 C 16,1 C 15,6 C 80 % 1010,4 hPa 0,0 l/m 0 min 0 min 0 W/m 22,5 km/h (4 Bft) 97,87 %
11.10.2019 23:36 17,2 C 16,1 C 16,1 C 80 % 1010,5 hPa 0,0 l/m 0 min 0 min 0 W/m 25,7 km/h (4 Bft) 98,15 %
11.10.2019 23:38 17,2 C 16,1 C 15,6 C 80 % 1010,5 hPa 0,0 l/m 0 min 0 min 0 W/m 22,5 km/h (4 Bft) 97,37 %
11.10.2019 23:40 17,2 C 16,1 C 16,1 C 80 % 1010,4 hPa 0,0 l/m 0 min 0 min 0 W/m 19,3 km/h (3 Bft) 97,96 %
11.10.2019 23:42 17,2 C 16,7 C 16,1 C 80 % 1010,5 hPa 0,0 l/m 0 min 0 min 0 W/m 19,3 km/h (3 Bft) 97,83 %
11.10.2019 23:44 17,2 C 16,7 C 16,1 C 80 % 1010,5 hPa 0,0 l/m 0 min 0 min 0 W/m 22,5 km/h (4 Bft) 97,87 %
11.10.2019 23:46 17,2 C 16,7 C 16,1 C 80 % 1010,5 hPa 0,0 l/m 0 min 0 min 0 W/m 35,4 km/h (5 Bft) 96,30 %
11.10.2019 23:48 17,2 C 16,7 C 16,1 C 80 % 1010,4 hPa 0,0 l/m 0 min 0 min 0 W/m 16,1 km/h (3 Bft) 100,00 %
11.10.2019 23:50 17,2 C 16,7 C 16,1 C 79 % 1010,6 hPa 0,0 l/m 0 min 0 min 0 W/m 35,4 km/h (5 Bft) 95,92 %
11.10.2019 23:52 17,3 C 16,7 C 16,1 C 79 % 1010,5 hPa 0,0 l/m 0 min 0 min 0 W/m 35,4 km/h (5 Bft) 97,87 %
11.10.2019 23:54 17,3 C 16,7 C 16,1 C 79 % 1010,5 hPa 0,0 l/m 0 min 0 min 0 W/m 29,0 km/h (5 Bft) 96,30 %
11.10.2019 23:56 17,3 C 16,7 C 16,1 C 79 % 1010,6 hPa 0,0 l/m 0 min 0 min 0 W/m 38,6 km/h (5 Bft) 97,37 %
11.10.2019 23:58 17,4 C 16,7 C 16,1 C 79 % 1010,6 hPa 0,0 l/m 0 min 0 min 0 W/m 29,0 km/h (5 Bft) 97,92 %
_ Min-Zeit 02:50 02:10 02:36 14:38 22:54 - - - - 02:36 08:10
Minimum _ 12,6 C 11,7 C 11,1 C 79 % 1010,4 hPa - - - - 6,4 km/h (2 Bft) 87,23 %
_ Max-Zeit 23:58 14:28 14:32 00:00 00:00 00:00 00:00 07:20 14:34 12:44 00:00
Maximum _ 17,4 C 16,7 C 16,1 C 86 % 1016,2 hPa 0,0 l/m 0 min 2 min 206 W/m 48,3 km/h
S-SO (6 Bft)
100,00 %
Durchschnitt _ 15,0 C 14,3 C 13,8 C 82 % 1013,3 hPa #0,0 l/m #0 min. #28 min. 67 W/m 24,2 km/h (4 Bft) 97,68 %
© 2019 W. Hausmann